ECMWFNIL_850_thetae_021.txt.gz
Theta_e
340 341 343 343 343 348 352 351 346 344 347 351 350 349 349 348 346 345 345 344 341 339 337 332 328 327 329 329 326 327 334 336 336 335 335 335 335 335 336 335 335 335
338 339 341 344 344 345 348 348 346 345 345 348 350 351 350 348 347 346 344 345 341 336 333 327 323 321 324 330 324 320 327 332 335 336 335 336 336 336 336 335 334 335
337 337 339 343 345 343 344 343 344 345 345 346 348 349 350 348 347 345 344 344 340 337 332 323 323 321 321 330 330 326 330 333 334 335 335 335 336 336 336 335 334 334
338 337 337 343 346 345 343 341 342 342 344 348 348 348 350 347 343 343 343 340 335 336 335 325 327 331 324 326 331 332 335 336 335 336 336 335 336 336 336 335 335 335
338 338 339 343 346 347 344 339 339 340 343 348 347 347 349 343 336 338 339 333 325 332 336 327 329 337 334 330 329 329 333 336 336 336 336 335 336 335 335 335 335 334
339 338 339 342 345 347 345 339 339 340 341 348 348 347 347 339 331 331 331 326 320 324 330 327 328 335 334 330 326 323 328 334 337 337 336 336 335 335 335 335 335 335
339 337 338 342 345 345 344 341 342 341 339 345 347 345 343 337 330 328 327 325 321 320 323 323 324 327 325 322 322 321 324 329 333 336 335 336 336 335 334 333 334 335
340 339 338 342 345 345 342 340 342 343 340 342 342 338 336 334 329 326 324 322 321 320 320 320 321 321 319 321 322 321 322 327 332 334 333 334 335 334 333 333 334 335
339 340 339 342 346 345 341 343 346 345 339 337 335 333 333 332 328 325 323 320 318 318 319 320 322 321 320 321 321 320 320 326 333 336 333 331 332 333 332 333 334 335
338 340 341 343 347 346 343 345 349 346 336 332 333 332 332 330 328 327 325 321 319 318 319 320 322 322 322 322 321 320 320 322 328 330 327 324 329 333 334 334 336 335
340 340 342 346 350 350 344 339 341 340 333 330 331 331 332 332 331 331 329 324 319 317 319 321 322 324 325 324 322 320 320 321 322 323 319 317 321 328 331 332 335 335
339 340 341 345 350 351 344 336 338 339 335 331 329 328 332 334 334 334 331 327 321 317 319 321 322 326 327 325 322 322 322 322 321 321 319 315 317 323 328 330 332 333
338 338 339 341 345 346 343 339 339 339 338 336 332 328 328 331 333 333 333 331 324 318 318 320 323 328 328 325 324 325 325 322 321 321 320 317 317 324 330 331 332 332
340 338 339 341 342 342 341 340 339 337 338 341 339 334 330 330 329 329 332 334 329 321 317 318 323 327 327 326 327 327 325 322 321 321 321 321 323 328 332 333 333 333
346 345 347 346 345 342 341 342 343 339 337 339 341 339 336 334 331 330 334 336 332 324 318 317 322 326 326 328 329 328 325 323 321 321 322 326 329 333 335 335 334 333
353 355 355 351 347 343 343 344 344 343 342 340 340 340 341 340 337 336 338 337 335 330 321 317 321 324 325 328 330 328 326 325 322 321 326 331 333 335 336 335 335 335
357 358 357 353 349 346 346 346 345 347 348 345 341 340 341 343 341 340 340 339 338 336 326 319 319 322 324 327 329 329 327 325 322 321 327 333 335 335 336 335 335 335
358 358 356 353 351 349 347 348 348 349 350 348 345 342 342 343 342 341 340 339 340 339 331 321 319 322 324 326 329 329 326 326 327 329 332 335 335 335 335 335 335 335
357 357 354 352 351 351 350 351 350 350 350 349 348 345 344 343 342 341 341 340 341 341 332 321 320 324 325 326 329 330 326 325 328 332 334 335 335 334 334 335 335 335
355 354 353 351 351 351 351 352 351 351 352 350 349 348 345 344 342 341 341 341 341 340 331 322 323 325 324 325 329 330 327 324 326 329 331 332 334 334 333 334 335 335
352 353 353 352 353 352 350 350 351 351 352 351 351 349 347 346 344 342 341 341 340 339 332 324 323 325 325 326 329 330 328 324 325 327 328 330 333 332 332 334 334 333
349 351 351 353 355 354 349 349 350 351 352 352 351 350 349 349 347 344 342 341 339 338 333 326 324 328 330 331 331 331 329 325 325 327 327 329 330 329 329 332 333 332
347 348 347 351 354 353 349 350 350 350 351 352 351 351 350 350 349 347 345 342 339 337 333 327 326 330 334 334 333 333 331 327 324 326 328 329 329 328 329 330 330 329
345 345 345 348 351 352 352 352 351 350 350 350 350 350 349 348 348 347 345 342 338 336 333 328 327 331 334 335 334 334 333 329 324 325 328 329 329 328 327 327 327 329
343 343 344 345 348 352 355 354 352 351 350 350 350 349 348 348 346 344 343 342 339 336 334 332 332 334 335 336 335 335 335 331 326 327 330 329 329 329 326 326 328 329
341 340 343 345 345 350 354 354 352 350 350 349 349 348 346 345 344 341 342 343 341 339 336 334 334 335 335 336 335 334 334 332 328 330 332 332 330 329 327 327 327 327

ECMWFNIL_850_thetae_024.txt.gz
Theta_e
344 343 342 344 344 345 346 343 343 347 349 347 343 342 340 338 340 343 344 343 339 336 333 330 326 324 325 326 329 336 336 333 336 337 336 335 333 335 337 335 335 335
346 344 343 343 343 344 344 344 345 347 349 350 346 341 338 337 340 341 342 343 340 335 329 325 322 321 322 321 320 325 326 325 332 337 336 334 334 336 336 334 334 333
347 345 344 343 342 341 343 346 349 348 347 347 344 342 341 342 343 342 342 344 343 337 331 325 321 318 318 319 318 319 320 319 323 332 336 334 332 334 335 334 335 335
349 347 344 342 340 341 341 344 348 348 345 343 343 344 346 346 346 344 343 344 340 335 331 324 319 318 317 319 319 319 319 319 319 325 334 336 332 333 335 335 336 336
349 348 345 341 340 340 341 342 344 344 344 342 343 345 346 347 348 346 344 341 336 331 329 323 318 317 318 318 320 320 319 320 321 322 329 334 333 333 333 333 333 332
351 351 346 342 340 340 340 342 341 342 342 341 342 345 346 345 346 345 342 338 333 330 326 322 319 318 318 319 320 320 320 320 321 323 324 327 331 333 333 334 333 329
352 353 348 344 343 341 339 340 340 341 341 339 341 343 345 344 342 341 340 336 332 329 325 320 318 318 318 320 320 321 322 321 322 326 327 325 326 329 330 333 335 331
352 354 350 347 347 345 341 338 339 340 340 338 340 341 342 343 341 338 338 336 331 329 325 320 318 319 318 320 321 321 322 321 323 328 330 326 322 321 320 324 328 326
352 353 350 347 348 347 343 339 339 340 337 336 337 340 341 341 339 337 337 336 333 330 325 321 318 319 318 320 322 322 321 321 322 325 327 324 319 317 316 317 320 320
351 352 350 348 347 345 341 338 339 337 333 333 335 340 343 341 339 337 337 337 335 332 327 322 319 318 319 321 323 323 322 321 321 321 323 324 320 317 316 316 317 318
350 350 350 348 345 343 339 337 339 339 335 333 334 340 343 341 339 339 339 338 337 334 328 323 321 319 318 321 324 324 323 322 321 319 322 326 324 319 317 317 318 320
348 348 348 346 344 346 343 338 341 344 342 336 333 338 341 341 340 340 340 340 338 336 331 326 322 319 318 321 323 325 326 325 321 319 322 328 327 322 320 319 321 325
348 344 343 343 345 348 348 344 344 346 347 344 339 338 339 340 341 341 340 340 339 338 334 329 325 321 319 320 322 325 328 326 321 320 323 327 327 324 321 319 319 323
348 340 338 340 343 348 350 350 348 347 349 351 348 345 343 341 341 342 341 341 341 339 337 333 329 324 320 319 321 325 329 327 322 321 323 325 326 325 321 319 318 322
350 343 339 339 343 347 348 349 350 349 350 352 351 351 350 348 345 343 343 343 342 341 339 336 332 328 323 320 320 323 328 327 323 322 324 324 326 325 322 320 322 328
355 351 347 343 345 346 344 345 348 350 351 351 350 350 351 351 350 347 345 345 344 343 341 339 336 332 327 323 320 322 326 327 325 324 324 324 328 328 325 324 325 329
358 357 354 351 349 346 345 345 346 348 350 350 350 350 351 351 351 350 349 347 345 344 342 341 338 334 331 326 321 321 325 327 327 326 324 327 332 332 330 332 333 332
358 359 360 358 355 351 349 349 349 350 351 351 352 352 352 351 350 350 350 348 347 345 344 342 340 337 335 330 323 320 324 327 327 326 325 327 333 334 333 335 337 336
359 361 362 361 360 357 355 354 354 354 353 354 354 353 352 351 350 350 349 348 347 347 346 344 342 340 338 334 325 320 323 327 327 326 326 329 333 335 335 336 337 337
361 362 363 363 364 362 360 358 356 356 355 355 355 354 353 352 350 350 350 348 348 347 346 345 344 342 341 338 329 321 321 326 328 326 329 333 335 335 336 336 336 336
362 364 366 366 365 364 362 360 358 357 357 356 355 354 353 353 352 351 350 349 348 347 346 346 344 342 341 339 334 324 320 324 328 327 331 336 338 336 336 336 335 335
364 366 367 366 365 363 361 359 358 358 356 355 354 354 354 354 353 352 351 350 349 347 346 345 344 342 341 340 338 329 321 323 327 327 330 336 337 336 335 335 334 335
365 366 366 365 363 361 359 358 358 356 354 354 353 353 353 353 352 352 351 350 349 348 347 345 343 342 341 341 340 333 324 324 327 327 328 331 332 333 335 335 335 334
366 365 364 363 361 359 357 355 353 352 352 353 353 353 354 353 352 352 351 350 349 347 346 345 344 343 342 341 339 332 325 325 328 329 329 328 326 327 333 335 335 335
365 364 362 360 358 356 354 351 349 350 351 352 353 354 354 352 351 351 349 348 347 345 344 344 342 341 340 338 334 330 328 328 329 330 330 329 326 326 330 335 336 336
363 361 359 357 355 353 351 350 349 349 349 350 352 353 353 351 351 350 348 347 345 343 343 342 341 340 339 337 334 332 332 332 332 332 333 331 329 328 331 336 337 336

ECMWFNIL_850_thetae_027.txt.gz
Theta_e
341 341 342 343 344 345 344 347 348 347 345 343 340 338 336 336 338 340 337 334 332 333 337 339 336 334 330 325 330 337 336 336 335 327 321 323 324 324 323 326 331 334
341 341 342 343 344 344 344 345 347 345 343 341 339 335 334 336 339 340 339 336 335 335 336 336 331 326 323 319 326 335 334 334 333 325 320 322 322 323 322 323 328 331
342 341 341 342 343 343 343 345 345 344 341 339 337 334 333 337 340 341 340 337 336 337 335 330 323 320 318 317 323 332 332 331 329 322 321 324 322 321 321 321 326 329
343 342 341 341 342 342 342 344 344 343 341 338 336 335 334 337 341 341 338 336 337 338 334 325 320 318 318 317 320 327 328 328 326 322 323 325 323 321 320 321 329 333
343 341 341 341 341 342 342 342 343 342 340 338 336 337 338 339 340 339 336 336 337 337 334 326 320 317 318 318 318 321 323 323 322 321 322 323 323 324 321 322 331 336
345 342 341 341 341 341 342 342 342 340 339 338 337 337 339 340 341 338 335 336 337 337 335 330 323 318 318 319 318 319 320 319 319 320 320 321 324 326 324 322 328 335
347 344 341 341 342 342 342 342 341 340 339 338 337 338 339 340 340 339 338 338 337 337 337 333 327 321 318 319 320 319 319 319 319 319 319 320 323 325 325 322 325 331
348 344 342 342 343 342 342 342 341 340 339 337 337 338 339 339 340 341 341 340 339 337 337 335 330 324 319 319 319 319 320 320 319 319 319 320 322 323 323 322 324 328
350 346 343 342 343 343 343 342 340 340 339 338 337 338 340 340 340 341 342 342 341 339 338 336 333 327 320 318 319 319 320 320 319 320 319 320 321 321 321 321 321 323
352 349 345 343 343 343 343 341 340 340 339 338 336 337 339 340 340 341 342 342 342 341 340 337 335 331 324 319 319 319 320 321 320 320 320 319 320 322 322 321 320 321
353 350 348 344 342 342 342 340 339 339 339 338 336 336 338 339 340 340 340 341 340 340 340 338 335 334 329 323 319 319 320 321 320 321 321 320 320 321 322 321 319 319
353 351 348 344 342 342 342 341 340 339 339 338 336 335 337 337 338 338 338 339 338 337 337 337 336 335 332 328 323 319 320 321 322 321 322 322 321 320 320 320 319 318
353 349 345 343 341 340 340 341 340 340 339 338 337 337 336 335 335 335 337 337 338 338 337 337 337 336 335 332 327 321 319 321 322 323 323 323 322 321 321 321 320 318
349 346 344 343 341 340 341 342 342 341 341 339 339 339 337 335 335 335 336 337 338 338 338 339 339 339 338 335 331 325 321 319 321 323 324 323 322 322 322 323 322 319
348 345 346 345 343 342 343 343 343 343 344 344 343 341 339 338 338 338 339 339 340 340 341 342 342 342 340 338 335 329 323 320 320 323 324 323 322 321 322 324 324 319
350 347 348 348 346 344 344 343 343 344 347 348 347 345 343 342 341 341 342 342 343 343 344 344 345 344 343 341 338 334 328 322 320 321 324 325 322 321 321 324 325 321
353 350 350 349 347 346 345 345 344 345 348 350 351 350 348 347 345 343 343 343 344 345 346 346 346 345 344 343 340 337 332 325 320 320 322 325 324 321 321 324 326 324
356 354 352 350 349 348 347 348 348 348 350 352 353 353 352 351 350 348 346 346 346 348 348 348 348 346 345 344 342 339 336 330 323 319 320 324 325 322 321 323 326 325
357 357 355 353 351 350 349 351 352 352 353 353 354 353 354 354 354 352 352 351 350 350 350 350 349 348 347 345 343 341 338 334 328 322 318 322 325 323 322 323 325 326
356 357 357 356 355 353 352 353 354 355 355 355 355 355 354 355 355 354 354 354 353 352 352 351 351 349 348 346 344 343 341 338 333 326 320 321 325 324 322 323 327 329
355 356 357 358 357 356 355 354 355 356 357 357 357 356 355 355 355 355 355 354 354 353 352 352 351 350 349 347 346 345 343 341 336 329 322 322 324 325 323 325 329 331
355 355 357 358 359 358 357 356 355 356 357 357 356 356 356 356 355 355 355 354 354 353 352 352 351 350 349 348 347 346 345 343 339 333 326 321 323 325 325 326 330 333
355 355 357 359 359 359 359 358 357 357 357 357 357 356 356 355 356 355 355 354 354 353 353 352 351 350 349 348 348 347 346 344 341 337 330 322 322 325 326 329 334 336
355 356 357 358 359 359 360 360 360 359 358 357 356 356 356 355 356 356 355 355 354 353 353 352 351 350 349 348 348 346 346 344 343 340 333 324 322 324 326 331 337 338
355 357 358 357 358 359 360 361 362 361 360 359 357 356 356 356 356 356 356 356 355 354 353 351 350 350 348 348 347 346 346 344 341 339 334 327 323 324 325 330 335 337
357 358 358 358 358 360 362 363 362 362 361 360 359 358 357 357 357 356 356 356 354 353 352 351 350 349 347 346 346 345 344 342 339 337 334 328 324 325 326 328 330 332

ECMWFNIL_850_thetae_030.txt.gz
Theta_e
339 338 337 337 338 339 341 342 342 343 343 344 345 343 341 340 340 339 336 336 338 334 330 331 333 334 330 325 325 328 328 330 331 330 326 324 326 327 325 325 328 329
341 339 338 337 339 339 341 342 342 343 342 343 344 343 342 341 341 338 336 337 338 334 330 330 332 333 329 326 326 327 325 326 328 327 323 321 322 325 324 324 327 329
343 340 339 338 338 339 340 342 342 342 342 342 344 343 342 342 341 338 336 337 337 334 331 330 331 332 330 326 326 325 322 323 325 323 320 318 319 321 322 324 325 327
346 342 340 339 339 339 340 341 342 342 342 342 343 343 343 342 341 338 336 337 338 337 333 330 330 331 329 325 324 323 320 320 323 322 319 317 318 319 321 323 323 324
348 344 342 341 341 340 341 342 342 342 342 342 342 344 344 343 342 339 335 336 339 339 335 331 330 329 326 323 321 321 319 318 322 322 319 317 317 318 319 321 322 322
350 347 344 343 344 342 341 341 342 342 342 341 341 343 344 343 342 339 334 335 338 339 335 331 330 329 323 320 319 319 319 319 320 321 320 318 317 317 319 319 320 321
352 350 348 346 346 345 343 342 342 343 341 341 341 342 344 343 341 338 334 333 336 339 336 330 331 330 322 319 319 318 318 319 319 319 319 318 318 317 318 319 319 319
352 352 351 349 348 347 345 343 342 342 342 341 341 341 343 343 340 337 335 334 336 338 336 331 331 331 325 320 319 318 319 319 319 319 320 319 318 318 318 318 319 318
353 353 352 352 350 348 346 344 342 342 342 341 341 341 342 342 340 337 336 337 337 338 337 332 331 333 331 325 320 318 318 319 319 319 320 321 320 319 318 318 320 320
354 353 353 353 352 349 346 344 343 343 343 342 341 341 341 341 339 337 337 338 339 339 338 336 334 335 334 331 327 322 319 319 319 319 320 321 320 320 319 318 321 322
355 353 353 352 351 349 346 344 344 344 342 341 341 341 341 341 340 338 337 338 338 338 338 337 337 337 337 336 335 330 324 319 319 320 320 320 321 320 319 319 320 322
356 354 352 351 350 349 346 345 344 344 342 341 341 340 340 341 340 338 337 337 338 338 338 338 338 339 339 339 339 337 332 325 320 319 320 320 320 320 320 319 320 322
357 355 351 349 347 347 346 345 345 344 343 342 341 341 341 340 339 338 336 337 338 339 339 339 339 340 340 340 339 339 337 332 325 320 319 320 320 319 320 319 320 321
357 355 352 348 346 346 347 347 345 344 344 343 343 343 341 339 338 337 337 338 338 339 340 340 341 340 339 339 339 339 338 338 333 325 320 319 320 320 320 319 320 321
357 356 354 351 348 347 347 347 345 344 344 345 346 344 342 341 339 339 339 339 338 339 341 342 342 341 340 339 339 339 339 339 337 332 325 320 319 320 320 321 320 322
358 357 356 354 352 349 346 345 345 344 345 346 347 346 344 343 342 341 340 339 337 339 341 342 342 341 340 340 341 341 341 341 340 338 333 326 321 319 320 322 322 322
359 358 357 356 354 350 347 345 344 344 346 347 348 348 347 346 345 343 340 338 338 340 341 341 340 339 339 341 342 343 344 344 342 341 339 334 327 321 320 321 322 323
359 358 358 357 355 353 349 347 346 346 347 349 349 349 348 348 347 344 341 339 340 341 342 341 339 338 339 342 344 345 345 345 344 343 342 340 335 329 322 320 322 324
358 358 358 357 356 354 352 350 349 349 350 351 351 349 348 348 346 344 343 343 343 343 342 342 340 340 342 344 345 346 346 347 346 345 344 342 340 335 328 322 321 322
358 358 358 358 357 355 354 353 351 351 351 352 352 351 349 347 346 345 345 344 344 343 344 343 342 343 344 346 347 348 348 348 347 346 345 343 341 339 334 327 322 321
357 358 358 358 357 357 356 355 353 353 353 353 353 353 350 347 345 345 345 344 344 345 345 345 344 345 347 348 349 350 350 350 349 347 346 344 342 340 338 333 329 324
357 358 358 359 358 358 356 355 354 354 353 354 354 353 351 350 348 346 346 345 345 347 347 346 347 350 351 351 351 352 351 350 349 347 346 345 343 341 340 337 334 329
358 358 359 359 358 358 356 355 354 353 353 354 355 354 353 352 350 349 348 348 349 349 348 349 352 353 353 353 353 353 352 351 349 348 346 345 344 342 341 339 336 331
358 358 358 358 358 357 356 355 355 353 353 353 354 354 353 351 350 351 351 352 352 352 352 353 354 355 355 355 354 353 352 351 349 348 346 345 344 343 341 340 337 332
359 359 358 358 357 356 355 355 355 354 353 353 353 353 352 352 352 354 354 354 354 355 356 356 356 356 355 355 355 353 352 350 348 347 346 345 344 343 341 340 338 334
360 359 359 358 357 356 355 355 355 355 354 354 353 354 354 354 355 355 356 356 356 357 357 357 357 356 356 355 353 351 350 349 348 347 347 345 345 343 342 341 338 334

ECMWFNIL_850_thetae_033.txt.gz
Theta_e
348 348 347 346 343 339 336 335 336 337 337 338 341 342 342 341 342 343 342 341 340 339 338 338 334 331 331 332 330 325 323 325 324 323 325 325 324 326 327 326 327 328
348 348 348 346 344 341 339 336 335 336 338 338 339 340 341 342 342 342 342 341 341 338 337 337 333 329 331 332 330 324 321 323 324 326 328 327 324 324 325 325 326 328
349 348 348 346 344 342 340 338 336 335 337 338 339 340 341 342 341 342 342 341 341 339 337 336 334 329 329 331 331 326 321 320 322 324 327 327 324 322 323 325 326 327
349 349 348 346 343 340 339 339 337 336 336 338 340 340 341 341 342 342 342 342 341 339 337 337 334 330 328 330 330 327 323 320 320 322 324 325 324 322 321 324 326 326
349 349 349 347 345 342 340 339 338 336 336 338 340 341 341 342 342 342 342 342 342 341 338 337 336 332 329 330 330 328 325 322 321 321 322 323 324 322 320 321 323 324
349 349 349 348 346 343 341 338 337 337 337 338 339 340 341 342 342 342 342 342 341 340 338 337 336 334 331 330 330 328 325 323 322 322 321 321 323 323 321 319 320 322
349 349 349 349 348 346 342 338 337 337 337 338 339 341 341 342 342 341 342 342 341 339 337 336 337 336 333 330 329 328 325 323 323 323 320 318 321 322 321 319 319 320
350 349 349 349 349 348 345 341 338 337 337 338 339 340 341 341 341 341 341 341 341 339 337 335 336 337 336 332 330 328 324 321 322 321 320 319 319 320 321 320 318 319
350 350 350 350 349 348 346 342 338 338 338 338 339 340 341 341 341 341 340 341 342 341 339 336 335 337 338 335 331 329 324 320 320 320 319 319 319 319 321 321 319 318
350 350 350 351 350 349 346 342 339 338 338 338 339 339 340 341 342 342 341 341 342 342 341 338 334 335 338 337 333 331 327 322 319 320 320 319 319 319 320 321 321 319
350 351 351 351 351 350 347 344 341 340 338 338 339 339 340 341 342 343 342 341 341 342 342 339 335 334 336 337 335 332 330 326 322 320 320 319 319 319 319 320 321 321
351 351 351 352 351 350 349 347 344 342 340 338 338 339 339 340 341 342 343 341 341 341 343 341 338 335 335 336 336 334 332 331 327 323 320 319 318 318 319 319 320 320
351 351 351 352 352 352 351 350 347 345 341 339 338 338 338 339 340 341 342 341 341 341 343 343 341 338 337 338 338 336 334 333 332 329 326 323 320 318 318 318 319 319
351 351 352 353 353 353 352 351 350 347 344 341 339 338 338 338 339 340 341 342 342 342 342 343 343 340 339 339 339 339 337 336 336 335 334 332 329 325 321 318 318 318
351 352 352 353 353 354 353 352 352 350 347 345 342 338 337 338 339 340 341 342 342 342 343 343 343 341 339 339 339 340 339 338 339 339 339 339 338 336 332 327 321 319
352 352 353 353 354 354 354 354 353 352 350 348 344 339 337 337 338 340 341 342 342 342 343 342 342 341 340 339 340 342 341 341 341 341 341 341 341 341 340 337 332 325
353 353 354 354 354 354 355 355 354 353 352 350 347 344 340 338 338 339 340 341 342 342 343 342 341 340 340 340 341 343 344 343 343 343 343 343 343 342 342 342 340 336
354 354 355 355 355 355 355 356 356 355 353 352 351 347 343 340 338 338 338 339 342 343 343 342 341 340 341 342 343 344 345 345 345 345 344 344 344 343 344 344 343 341
355 355 355 355 355 356 356 357 357 356 354 353 351 350 347 343 339 337 337 338 341 342 342 341 341 342 342 343 344 345 346 346 346 346 345 345 345 345 345 346 345 343
356 356 355 356 356 356 357 357 357 357 355 354 353 352 350 344 339 337 336 337 339 340 340 341 341 343 344 344 346 346 346 346 346 346 346 346 346 346 347 347 346 345
356 356 356 356 357 358 358 358 358 357 356 355 355 353 349 344 340 338 336 336 338 338 340 341 342 344 345 345 346 346 346 346 347 347 347 347 347 348 348 347 347 346
356 356 356 357 358 359 359 358 358 358 357 356 355 353 350 347 344 341 338 338 337 338 340 341 343 345 346 346 347 347 346 347 348 349 349 349 349 349 348 348 347 346
356 356 356 358 359 359 359 358 358 358 357 357 356 354 352 349 346 344 342 340 339 340 340 342 345 347 347 347 348 348 348 349 349 350 350 350 350 350 349 349 347 346
355 355 356 357 359 359 359 359 358 358 357 357 356 355 352 349 347 345 344 341 341 340 340 343 347 347 346 347 348 348 349 350 351 351 351 351 351 350 350 349 347 345
355 356 356 357 358 359 358 359 358 358 357 357 357 356 354 351 349 348 346 343 342 341 342 345 347 347 346 348 349 349 351 352 353 353 352 352 351 350 350 348 346 345
355 357 356 356 357 357 358 358 358 358 358 358 357 357 356 354 352 350 348 346 344 343 344 345 346 346 347 349 350 352 353 354 354 354 353 353 352 350 349 348 346 344

ECMWFNIL_850_thetae_036.txt.gz
Theta_e
347 347 346 344 342 341 340 339 338 337 336 334 333 333 333 334 336 339 343 344 345 345 344 343 342 340 338 337 334 331 330 327 324 325 327 327 326 326 328 330 330 330
347 347 347 346 345 343 342 340 338 337 336 335 333 333 334 334 335 339 343 344 344 344 342 341 340 339 338 337 333 331 331 328 324 323 325 325 324 324 325 327 327 327
348 348 347 347 346 345 344 342 340 338 336 335 334 333 334 335 335 339 343 344 344 343 342 341 339 337 337 336 334 331 331 328 323 322 323 323 323 322 323 325 326 326
348 347 347 347 347 346 345 345 344 340 336 335 334 334 335 336 336 338 343 344 343 342 343 341 340 337 335 336 333 331 331 329 324 322 322 322 323 324 324 325 325 325
347 347 347 347 347 347 346 346 346 343 339 335 334 334 335 336 337 338 341 343 343 343 343 343 341 338 336 336 334 330 330 330 327 323 322 321 322 323 324 324 324 323
347 347 348 347 347 347 347 347 346 344 341 337 334 334 334 335 336 337 339 341 342 342 343 343 343 340 336 335 335 331 329 329 329 326 323 320 320 322 323 323 323 321
347 348 347 348 347 347 347 347 346 346 343 340 336 334 334 334 335 336 338 340 340 341 342 343 343 341 338 336 335 333 330 329 329 329 326 322 321 321 321 321 322 321
347 348 347 348 348 348 348 347 347 347 345 343 340 335 334 334 335 336 337 339 340 341 342 342 342 342 339 336 335 335 332 330 329 329 327 324 322 321 320 321 321 320
347 348 347 348 348 348 348 348 348 347 347 346 343 338 334 334 335 336 336 339 340 341 341 341 342 342 340 337 335 335 335 332 330 329 327 325 323 321 321 321 321 320
348 348 348 348 348 348 348 348 348 348 347 347 346 342 337 334 335 336 337 338 339 340 341 341 341 341 341 339 336 335 336 335 333 330 328 327 324 322 322 322 322 321
348 348 348 348 348 348 348 349 348 349 348 348 348 346 342 337 335 335 336 337 338 339 340 341 340 341 340 339 337 335 335 336 336 334 331 328 326 323 323 323 322 321
348 348 348 348 348 348 349 349 349 349 349 349 349 348 346 341 337 335 336 337 337 338 339 340 340 340 340 340 339 337 335 335 336 337 335 332 329 325 323 322 322 321
348 348 348 348 349 348 349 349 349 349 349 349 349 349 348 344 339 336 336 336 337 337 338 339 340 340 340 340 340 339 337 336 335 336 337 336 333 329 326 324 322 321
347 348 348 348 348 348 349 349 349 349 349 349 350 349 348 345 341 337 336 336 336 337 337 338 339 340 340 339 340 340 340 338 337 336 337 337 336 334 332 329 326 324
348 348 348 349 349 349 349 349 349 349 350 350 350 349 348 346 343 340 337 335 336 336 337 338 339 339 339 339 339 340 340 340 339 337 336 337 338 336 335 334 333 331
349 349 349 349 349 349 349 349 349 349 350 350 351 350 348 347 345 343 339 336 335 336 337 337 338 337 337 338 338 339 340 341 341 339 338 338 339 339 337 337 337 338
349 349 350 350 349 350 350 350 350 349 350 351 351 351 350 348 346 343 339 336 335 335 336 336 336 336 336 337 338 339 340 341 341 341 340 339 340 340 340 339 340 341
349 349 350 350 350 350 350 350 350 350 350 350 351 352 351 349 346 342 339 337 337 336 335 335 335 335 336 337 338 339 340 341 341 342 341 341 341 341 342 342 342 342
349 349 350 350 350 351 351 350 350 350 350 351 351 352 352 350 346 342 340 339 338 337 335 334 334 334 335 336 337 339 340 341 342 342 342 342 342 342 343 343 344 344
349 349 349 350 350 351 351 351 350 350 350 351 351 352 353 352 349 346 343 340 338 336 336 335 333 333 334 335 337 339 340 341 343 343 344 343 343 343 344 345 345 345
349 350 350 351 351 351 351 351 351 350 351 351 352 352 353 353 352 349 345 341 339 338 338 336 333 333 334 335 336 338 339 342 344 345 345 344 344 344 345 345 346 346
350 350 350 351 352 352 352 352 352 351 351 351 352 352 353 353 354 353 349 345 342 341 340 337 334 334 334 334 336 337 339 343 345 346 346 345 344 345 345 346 347 347
349 350 351 352 352 353 353 352 352 352 352 352 353 353 353 353 354 354 353 350 347 343 341 337 335 334 335 335 335 337 340 344 345 346 346 345 344 345 347 347 348 348
350 351 351 351 352 352 352 352 352 352 353 353 353 353 354 354 354 355 355 353 351 346 341 338 337 335 335 336 336 338 340 343 344 346 346 345 346 347 348 349 349 349
350 351 351 351 352 352 352 353 353 353 354 354 354 354 354 354 355 355 355 355 354 350 346 344 341 338 337 338 338 339 341 343 345 346 347 347 348 349 350 351 351 351
351 351 351 352 352 352 353 354 354 355 355 355 355 355 355 356 356 356 357 356 355 354 352 350 347 343 341 341 341 341 342 344 346 347 348 348 349 350 351 352 352 351

ECMWFNIL_850_thetae_039.txt.gz
Theta_e
344 344 344 343 341 340 338 337 336 335 335 334 335 334 334 334 334 335 335 335 336 338 340 341 343 344 344 343 342 340 337 334 332 327 323 323 326 326 326 327 329 331
346 345 345 345 345 343 342 340 338 337 335 335 336 335 334 334 333 334 334 334 334 335 338 341 343 344 343 341 340 339 337 334 331 329 324 323 325 326 326 327 328 329
346 346 345 346 346 345 344 344 341 339 337 337 336 335 334 334 333 333 333 333 333 334 338 342 343 343 342 340 338 337 336 334 331 330 326 323 323 324 324 325 326 326
345 346 346 345 346 345 345 345 344 343 340 338 337 336 335 333 332 333 333 333 333 333 337 341 343 343 342 339 337 337 335 333 332 330 328 325 323 323 323 323 324 324
345 344 345 345 346 346 346 346 346 345 344 341 338 336 336 335 333 333 334 334 335 334 336 341 343 342 341 340 337 336 335 333 331 330 330 327 323 322 323 324 325 326
344 345 344 345 346 346 347 347 346 346 346 344 341 339 337 336 334 334 333 335 336 335 337 340 343 342 341 341 338 335 334 333 331 329 329 328 325 322 321 322 324 326
344 345 345 345 346 346 347 347 347 346 346 346 344 342 340 338 336 334 333 334 335 336 337 338 341 342 341 341 340 337 334 333 331 329 328 328 327 324 321 320 321 323
344 345 345 345 345 346 346 347 346 347 346 346 346 345 344 341 337 334 333 333 334 335 336 337 339 340 342 342 341 339 336 334 332 331 329 329 328 326 323 321 321 321
344 344 344 344 345 345 346 347 347 347 347 347 346 346 345 343 340 336 334 333 333 334 336 336 337 339 341 342 342 342 339 336 334 333 332 329 328 327 326 324 322 321
344 344 343 344 344 345 346 346 347 347 347 347 347 346 346 344 342 340 336 334 333 333 335 335 337 338 339 340 341 342 342 339 335 334 333 332 329 328 327 326 324 323
343 343 343 344 344 345 345 345 346 346 346 346 347 347 346 345 345 342 339 336 334 334 334 335 336 337 338 339 339 341 342 341 338 335 334 334 332 330 329 327 326 325
343 343 343 343 344 345 345 345 346 346 346 347 347 347 347 346 346 344 341 337 334 334 334 335 336 336 337 338 339 340 341 342 341 338 335 334 334 333 332 330 328 326
342 342 343 343 344 344 345 345 345 346 346 346 347 347 347 347 347 346 343 340 336 333 334 335 335 336 336 337 338 339 339 341 341 340 338 335 333 333 334 333 330 327
342 343 343 343 344 344 344 345 345 346 346 347 347 347 348 348 347 346 345 342 338 335 334 334 335 336 336 336 337 338 338 339 341 341 341 338 334 333 334 334 333 331
342 343 343 344 344 345 345 345 345 346 346 346 347 348 347 348 348 347 347 344 342 337 335 335 335 335 336 336 336 337 338 339 339 340 341 340 338 334 333 333 334 334
344 343 343 344 345 345 345 345 346 346 346 346 347 347 348 348 348 348 348 347 344 340 337 336 335 334 335 336 336 336 337 338 339 339 340 340 340 338 335 333 333 334
344 344 344 345 345 346 345 346 346 346 346 347 347 348 348 348 348 348 349 348 347 343 340 337 335 335 334 335 335 336 337 337 338 339 338 339 340 340 338 335 334 335
345 345 345 345 345 345 346 346 346 346 347 347 347 347 348 348 349 348 349 349 348 346 342 339 335 334 334 334 335 335 336 336 337 338 338 339 339 340 340 338 336 336
345 345 345 345 346 346 346 347 347 346 347 347 347 348 348 349 349 349 349 349 350 347 343 340 336 334 333 334 334 335 336 337 337 337 338 338 339 340 340 340 339 338
344 345 345 346 346 346 347 347 347 347 348 348 348 348 348 349 349 349 349 350 350 349 347 342 338 335 334 334 334 334 335 336 337 337 337 338 338 339 340 341 341 341
345 345 346 346 346 347 348 348 347 348 348 348 348 348 348 349 349 349 349 349 350 350 349 345 341 337 335 335 334 334 335 336 337 337 337 338 339 340 341 342 343 343
345 346 346 347 347 348 348 348 348 348 349 349 349 349 349 349 349 349 349 350 350 351 351 348 343 339 337 336 335 335 336 337 338 338 338 338 339 340 341 343 343 344
345 346 347 347 348 349 349 349 348 348 349 349 349 350 350 350 350 349 349 350 350 350 351 351 348 344 339 338 337 337 338 340 340 340 340 339 339 340 342 343 345 345
345 346 346 347 347 348 348 349 349 349 349 349 350 350 350 350 351 350 349 349 350 350 351 352 351 349 344 342 341 341 341 343 343 343 342 341 341 341 342 344 345 345
344 345 346 346 346 347 348 348 349 349 349 350 350 350 351 351 352 352 350 350 350 350 351 351 352 352 349 349 347 346 346 347 347 347 346 344 342 342 343 345 345 346
345 345 345 346 347 347 347 348 348 348 350 350 350 351 352 352 352 353 352 352 352 351 351 351 352 353 352 351 351 350 351 350 350 349 347 345 344 343 343 345 346 346

ECMWFNIL_850_thetae_045.txt.gz
Theta_e
335 335 335 336 336 337 340 340 337 337 337 339 341 341 338 335 340 349 351 347 341 338 339 340 341 342 344 345 345 346 346 344 345 347 346 346 346 343 339 339 341 345
334 335 335 335 336 336 338 339 338 338 336 336 340 345 345 338 335 339 345 345 340 338 341 342 343 343 342 342 343 345 345 342 345 349 348 348 348 344 340 338 339 342
335 335 335 335 336 336 337 341 340 338 337 336 337 341 346 346 340 335 335 338 337 337 341 344 344 345 343 340 341 344 344 342 344 348 350 349 347 344 340 338 339 339
335 335 335 335 336 337 338 342 342 339 337 337 336 336 341 348 348 341 335 335 335 335 338 342 344 346 344 340 338 341 344 343 343 346 348 350 348 344 340 338 341 341
335 335 336 336 336 337 339 340 341 339 336 336 338 336 337 341 346 347 341 336 336 335 335 338 340 342 344 339 336 338 343 343 344 344 346 349 349 344 340 337 340 344
336 336 336 336 337 337 339 338 338 338 337 335 337 338 337 336 339 343 342 339 337 336 336 338 337 338 339 337 334 336 340 342 344 344 343 347 350 346 340 335 334 340
335 335 335 336 336 336 337 337 337 338 337 336 337 337 338 337 336 337 340 340 339 337 338 340 339 337 337 335 333 335 337 339 344 346 343 344 347 345 340 336 329 328
333 334 335 335 336 337 336 336 337 337 336 337 339 338 337 337 337 336 337 340 341 339 339 340 341 338 336 336 334 334 336 337 342 346 343 341 342 339 337 335 329 323
334 334 334 334 335 336 336 337 338 338 337 336 338 339 339 337 337 339 338 339 341 340 339 340 341 339 336 337 335 333 335 336 339 343 342 340 339 335 333 332 330 325
334 334 335 335 335 336 336 337 340 341 339 336 336 342 346 343 338 340 343 342 341 341 340 339 341 339 336 337 337 334 334 336 337 340 341 340 338 335 333 331 328 326
332 334 334 335 335 336 337 337 341 348 347 341 336 339 349 353 347 341 343 345 343 342 341 338 338 337 334 335 338 336 334 335 336 338 339 339 338 336 335 332 329 327
331 331 332 333 334 336 339 342 346 352 355 352 343 336 344 354 355 348 343 344 344 343 343 340 337 336 334 333 335 336 335 335 336 337 338 339 338 338 336 334 332 329
333 332 330 332 333 334 340 347 352 353 356 358 353 343 340 348 357 356 348 343 344 344 344 342 339 336 334 332 332 334 335 335 336 336 337 338 338 338 338 336 334 331
337 336 334 333 334 334 337 346 352 353 354 357 359 354 346 344 352 358 354 345 342 343 343 343 341 338 335 334 332 332 334 334 335 336 337 338 337 338 338 339 338 336
345 342 340 338 339 338 337 342 348 352 353 355 358 358 354 348 348 355 358 351 343 342 343 343 342 339 336 334 332 331 332 333 334 335 336 338 338 337 338 339 341 342
350 346 342 340 341 341 339 340 344 349 353 354 356 358 356 353 350 352 358 356 347 342 343 343 343 340 336 333 332 331 331 332 333 334 335 337 338 338 338 339 341 344
351 347 344 341 341 341 341 341 341 345 349 351 354 357 356 354 352 351 355 359 354 345 342 343 342 340 336 333 332 332 331 332 333 333 333 334 336 337 338 339 340 343
353 349 346 344 343 342 341 342 341 342 346 348 350 354 355 355 353 350 350 357 359 352 345 343 343 341 337 334 332 332 332 333 333 334 333 333 334 335 336 337 338 341
355 352 348 345 344 344 344 344 343 342 345 346 346 349 350 351 351 349 346 350 356 355 351 346 344 343 340 338 335 332 332 333 334 336 335 333 333 334 335 336 336 338
355 352 349 348 347 348 348 347 345 343 344 345 347 348 348 348 348 348 347 346 349 353 354 350 347 347 344 342 341 338 335 334 335 337 337 335 334 333 334 335 335 336
355 352 350 350 350 349 349 347 346 344 344 346 350 350 348 348 349 347 347 347 345 348 352 351 349 350 349 346 345 344 342 340 339 340 341 339 337 335 334 334 334 335
354 353 352 351 350 350 349 347 346 345 345 348 352 353 352 352 351 350 349 350 348 347 348 349 349 351 351 348 346 346 346 346 345 344 345 345 343 342 340 337 335 335
354 353 352 351 350 350 348 347 347 348 348 350 351 354 355 354 353 354 353 351 350 347 345 345 346 348 349 348 348 347 346 346 347 347 347 347 347 347 347 344 340 338
355 353 352 351 349 347 346 346 349 349 349 349 349 351 355 356 358 359 358 354 351 349 347 346 347 349 350 349 348 348 347 347 347 347 348 348 348 349 349 348 346 344
355 354 353 350 347 345 346 348 350 351 351 351 350 351 355 358 361 362 362 360 357 356 355 353 352 354 354 352 350 350 349 348 347 347 347 348 348 348 349 350 350 349
355 354 352 351 349 348 349 350 351 352 353 353 353 355 356 358 360 361 363 364 363 362 362 359 357 356 356 354 353 352 351 351 351 349 347 347 348 348 349 349 350 353

ECMWFNIL_850_thetae_048.txt.gz
Theta_e
334 334 334 335 336 337 340 341 339 337 338 341 342 342 341 341 343 344 343 341 339 338 339 340 339 339 342 345 347 348 351 350 348 346 344 343 342 335 329 328 336 346
334 334 334 335 336 336 337 338 338 338 337 338 340 342 340 339 341 342 343 344 342 339 338 339 339 339 340 343 345 347 348 347 345 346 345 344 342 336 328 323 327 339
333 334 334 334 335 335 335 336 338 338 339 338 339 343 344 342 342 342 344 345 344 341 340 339 339 339 339 340 342 344 345 344 343 345 346 346 344 337 329 325 324 330
333 333 333 333 333 333 334 336 337 338 340 341 340 342 345 347 346 344 343 344 345 343 341 339 338 340 341 341 341 342 343 343 342 344 346 346 345 341 332 328 329 326
333 333 332 333 333 334 335 336 336 337 339 342 343 342 343 346 348 347 345 345 345 345 345 342 338 339 342 343 343 342 340 341 341 342 345 344 343 343 335 328 330 330
333 333 333 333 333 335 335 335 335 336 338 340 343 343 342 343 346 347 347 347 346 346 347 345 340 337 339 342 344 344 341 339 340 341 343 343 342 342 339 330 326 329
334 333 333 333 334 335 336 335 335 337 338 340 343 345 345 343 343 344 346 348 347 346 346 346 342 337 336 337 341 344 343 340 338 339 340 342 341 340 339 335 327 325
334 333 334 334 334 335 336 336 337 337 337 341 346 346 346 345 343 341 342 346 348 346 345 345 343 340 337 337 337 339 342 341 337 337 338 340 342 340 338 336 331 326
334 334 334 334 335 335 336 335 336 338 338 341 345 347 347 347 346 343 341 343 346 347 346 345 344 343 341 340 337 335 337 338 336 335 336 339 340 340 339 337 334 329
336 335 334 334 335 335 335 335 335 336 338 339 341 346 349 348 348 348 345 343 344 346 346 345 344 344 343 344 341 337 334 334 334 334 335 337 338 339 339 338 335 331
336 336 335 334 335 335 334 335 335 336 339 340 339 343 348 350 349 349 348 346 343 343 345 344 343 344 344 345 345 341 337 333 333 333 334 335 337 337 338 338 336 333
336 337 337 335 334 335 335 334 336 339 343 342 339 340 346 349 349 348 347 347 343 341 342 343 342 343 345 345 345 345 342 337 333 333 334 335 337 337 338 339 338 336
336 335 337 336 335 335 338 338 337 341 345 346 344 344 345 348 349 348 345 344 343 341 340 341 341 341 344 346 345 346 346 342 337 334 334 336 338 339 339 339 339 339
339 335 335 336 336 336 339 342 343 344 346 349 350 350 350 350 351 350 348 345 344 343 340 340 341 340 343 345 344 346 348 347 342 337 335 336 338 341 341 338 338 339
346 340 337 336 337 338 338 341 345 347 347 349 352 354 354 354 353 353 354 351 348 346 344 344 344 341 341 343 344 344 345 347 345 341 338 338 339 342 344 340 339 340
354 348 343 339 338 338 338 338 341 346 348 349 352 353 355 357 356 354 355 355 353 351 350 349 347 343 339 340 341 341 340 342 343 342 341 339 339 343 345 344 343 342
359 354 350 345 340 338 338 338 339 343 346 348 351 352 353 355 357 357 355 356 356 355 353 351 348 345 341 338 337 338 337 338 339 340 341 340 339 342 344 345 346 346
361 358 355 351 346 341 339 338 338 340 343 347 349 352 353 354 356 358 356 355 356 357 356 354 350 346 342 339 337 337 337 337 338 339 341 341 339 341 342 344 347 348
363 361 358 354 351 347 343 342 340 340 342 345 347 349 352 353 354 356 356 355 355 356 358 357 354 350 346 342 340 339 338 338 339 339 340 340 340 340 341 341 343 346
364 363 360 358 356 353 350 347 344 342 342 345 347 348 349 351 352 353 354 354 353 354 356 358 358 356 353 347 343 342 341 340 340 339 339 338 340 340 339 339 339 341
365 363 362 360 359 357 355 352 348 346 346 347 350 350 348 348 349 351 352 351 352 352 353 356 358 358 357 353 348 344 344 342 341 342 341 340 340 341 340 339 338 339
364 364 362 362 361 360 359 356 353 351 349 350 351 352 352 351 351 351 352 351 351 351 351 353 354 356 357 355 352 349 348 347 345 344 344 343 342 342 342 340 340 341
363 363 363 362 362 362 360 358 357 355 353 354 353 354 355 355 354 353 353 354 354 353 352 351 351 354 356 355 354 354 353 352 349 348 347 346 345 345 344 343 342 342
362 363 363 362 362 363 362 360 359 357 357 356 355 354 354 356 357 356 355 355 355 355 354 352 350 352 354 355 356 358 358 356 354 353 352 349 348 348 347 346 346 345
361 362 362 362 362 362 362 361 359 358 358 358 358 355 355 357 360 360 359 358 358 357 357 356 355 353 353 355 356 358 360 360 359 358 356 354 353 351 349 349 350 350
361 361 362 362 363 363 363 361 359 359 359 359 359 358 357 358 360 361 363 364 363 362 361 360 359 359 357 356 357 358 360 361 361 360 359 356 356 355 354 352 352 352

ECMWFNIL_850_thetae_051.txt.gz
Theta_e
333 333 334 332 332 331 331 333 334 335 338 338 338 337 336 335 336 337 338 337 339 340 339 339 339 340 341 342 345 347 347 346 347 348 347 343 342 340 333 329 331 333
333 332 332 332 332 332 331 332 334 334 335 336 336 336 336 337 337 337 336 337 337 338 338 339 339 340 339 340 343 346 347 346 345 346 346 344 341 341 337 332 329 329
333 332 332 332 332 332 332 332 332 333 333 333 335 336 337 338 339 338 337 337 336 335 337 338 339 339 339 338 340 344 347 346 344 343 343 343 341 340 340 337 331 327
333 333 332 331 331 332 331 331 332 332 332 332 332 334 336 338 340 341 339 337 336 335 335 337 337 338 338 338 339 341 344 345 344 343 343 342 340 340 340 339 335 328
333 332 332 331 332 331 332 332 331 331 331 331 332 333 334 337 339 340 341 340 338 337 335 335 336 336 337 337 338 339 340 342 344 344 343 342 341 340 339 339 338 332
334 332 331 332 332 332 332 332 330 331 331 331 332 333 334 336 337 339 341 341 339 339 337 335 335 334 334 336 337 339 339 339 341 342 342 342 342 341 340 339 339 337
336 334 332 332 332 332 332 331 331 331 331 332 332 333 334 335 337 338 340 341 340 340 339 337 336 334 334 333 336 338 340 340 339 340 340 341 341 341 341 339 338 339
338 336 334 334 333 332 331 331 331 331 331 333 334 334 334 335 336 337 340 342 342 341 340 339 337 336 335 334 334 335 338 339 339 340 340 339 340 340 340 340 338 337
342 339 336 336 335 334 332 331 332 332 333 334 335 335 335 335 336 338 340 342 344 343 342 340 338 337 337 334 334 333 334 336 337 338 339 339 339 338 338 338 338 337
346 342 339 338 337 335 333 332 332 333 333 334 335 336 336 335 336 338 340 342 343 344 344 342 340 337 337 336 335 334 334 334 335 335 337 338 338 338 337 337 338 337
347 345 342 340 338 336 334 333 333 333 334 335 336 336 337 336 337 339 341 342 342 341 341 342 341 339 338 336 335 335 335 334 335 335 334 335 335 336 337 336 336 336
347 345 343 341 338 337 335 334 335 335 335 335 336 336 336 337 338 339 340 341 341 341 340 340 340 340 339 338 336 336 335 335 335 335 335 334 334 334 335 335 335 335
349 345 342 339 338 337 336 335 335 335 336 336 336 338 338 338 338 339 339 339 340 341 341 339 339 340 340 339 339 337 336 336 335 335 335 335 335 334 334 334 334 334
350 346 342 339 338 337 336 336 336 337 338 338 338 338 339 339 338 338 338 339 339 341 342 341 341 340 340 340 341 340 339 337 335 335 336 336 336 335 333 333 333 333
354 349 345 341 340 339 338 337 337 336 338 339 339 339 339 339 339 340 339 339 339 340 342 344 343 342 341 341 340 341 340 339 337 336 336 336 337 336 335 334 333 332
358 354 348 345 343 341 339 338 337 338 339 339 339 339 339 340 342 343 342 341 341 341 342 344 344 344 343 342 340 339 339 339 339 337 336 336 336 337 337 336 334 332
362 358 353 348 344 342 340 338 339 340 339 339 340 340 341 342 344 344 342 343 343 342 342 344 345 345 344 343 342 341 340 340 340 338 337 336 336 337 337 336 336 334
364 361 358 353 348 345 342 340 340 342 342 342 342 342 342 344 345 344 343 345 346 345 345 345 345 345 345 345 344 343 342 341 341 340 339 338 337 336 335 336 337 337
364 363 361 358 354 350 346 343 344 344 344 343 342 342 343 344 344 343 344 346 347 347 347 347 346 346 347 348 346 345 343 343 342 342 341 340 339 337 336 336 337 339
363 364 362 361 359 356 352 349 347 346 345 343 343 344 344 345 344 344 345 345 348 349 348 348 347 346 347 348 348 347 347 346 345 344 343 343 341 339 338 338 337 338
364 364 363 362 362 359 357 354 350 348 346 346 345 345 344 343 343 343 344 344 347 349 350 350 348 347 347 348 348 348 348 349 349 349 348 347 346 344 343 341 341 340
364 363 363 362 361 361 360 358 355 351 348 347 347 347 345 344 343 344 343 344 345 347 350 351 349 348 349 349 349 350 351 352 353 353 353 352 350 348 346 345 344 343
364 364 364 362 362 361 361 360 359 356 352 351 349 349 348 347 345 344 343 343 345 345 347 348 348 349 349 350 351 352 354 355 356 356 357 356 355 353 351 349 348 346
363 364 364 363 362 362 362 361 360 359 357 354 352 350 349 347 346 345 345 346 347 346 345 346 348 350 352 353 354 356 357 358 359 358 358 358 357 357 356 354 352 350
363 363 363 363 363 362 362 362 361 361 359 357 356 354 351 350 350 350 350 350 350 351 351 350 351 353 354 355 356 358 359 361 361 362 361 361 361 360 359 358 357 355
359 363 363 364 364 364 363 362 362 361 362 360 359 357 356 354 354 354 354 355 354 354 355 355 355 356 356 356 357 358 359 361 362 363 363 363 363 362 361 360 359 359

ECMWFNIL_850_thetae_054.txt.gz
Theta_e
338 337 335 334 333 332 331 331 330 330 330 332 333 333 333 333 334 335 335 336 337 336 337 337 337 339 342 345 346 346 347 348 349 349 348 347 344 343 341 334 330 332
340 338 336 334 333 332 331 331 330 329 329 330 332 333 334 335 335 336 335 336 336 336 337 337 337 338 340 342 344 344 345 346 348 349 348 347 345 344 342 335 329 330
341 340 338 335 333 331 331 331 330 330 329 330 332 332 333 334 335 335 335 335 335 336 337 338 338 339 339 339 341 342 343 344 344 346 346 346 345 344 343 339 333 329
343 341 340 336 333 332 332 332 331 330 330 331 333 333 332 333 334 335 335 334 334 335 336 338 338 338 339 339 339 340 340 341 342 344 345 345 344 344 343 341 338 334
344 343 341 339 336 333 333 333 332 331 330 331 332 333 333 333 334 334 335 335 335 335 335 336 336 336 337 338 339 339 339 339 341 343 344 344 342 342 342 342 341 339
346 344 343 341 338 336 334 333 332 332 331 330 331 332 334 335 334 333 334 335 336 336 336 335 334 334 335 336 337 338 338 338 339 340 341 341 341 341 341 341 341 340
347 344 343 342 340 339 336 334 333 332 331 331 330 330 333 333 332 331 331 333 335 336 336 335 334 333 333 334 335 336 337 338 338 338 338 338 338 339 340 341 341 340
347 345 343 342 342 341 339 336 335 333 332 332 331 330 330 331 330 330 330 331 333 334 335 335 334 333 333 333 333 334 335 336 337 337 337 337 336 337 338 338 339 338
349 347 345 344 343 342 340 338 337 335 333 332 332 331 330 330 329 330 330 331 332 333 333 334 334 334 333 333 333 333 333 333 335 336 336 337 336 336 336 337 337 337
351 349 347 345 343 342 340 338 338 337 335 334 333 332 331 330 330 330 331 331 332 333 333 333 333 334 334 334 333 333 333 332 333 334 334 335 334 335 335 336 337 336
353 351 348 345 343 341 339 338 338 338 337 335 334 332 332 331 330 331 331 331 332 332 333 333 333 334 334 335 334 334 334 334 333 333 333 333 333 333 334 334 336 336
354 353 350 347 344 341 339 339 338 338 337 335 334 333 332 331 331 331 331 331 331 332 332 333 333 334 334 334 334 335 335 335 335 335 334 333 333 333 333 332 333 334
356 354 352 349 345 342 339 339 339 338 337 336 334 333 332 331 332 331 331 331 331 332 332 332 333 335 335 336 336 336 336 336 336 336 335 335 334 334 333 333 332 332
356 355 353 351 348 344 341 340 340 339 339 337 335 333 332 332 332 331 331 332 332 332 332 332 334 335 337 337 338 339 339 338 337 337 337 336 335 334 334 334 334 333
358 357 355 353 351 348 345 342 341 341 341 339 337 335 333 332 332 333 332 332 332 332 332 333 334 336 336 337 337 339 339 339 338 338 338 338 337 337 336 335 335 335
359 358 357 356 354 352 349 345 343 343 343 342 340 337 335 334 334 334 334 333 333 333 333 334 335 335 335 335 336 337 338 338 339 339 339 340 340 340 339 338 337 336
360 359 359 358 357 355 353 350 347 346 345 344 342 340 338 337 336 335 335 334 334 333 333 334 335 334 335 335 336 337 339 341 341 340 340 341 342 343 343 341 340 338
360 360 360 360 359 357 356 354 352 350 348 346 345 343 341 340 338 336 336 336 336 335 335 335 335 334 335 336 337 338 341 343 343 343 343 342 342 343 342 342 342 341
361 362 362 362 361 360 359 357 355 353 351 348 346 345 343 342 340 337 337 338 339 338 336 336 335 335 336 337 338 339 341 343 345 345 345 344 343 343 342 343 342 342
362 363 363 363 363 362 361 360 358 356 353 351 349 348 347 344 342 340 338 338 340 339 338 337 336 336 337 338 339 340 341 344 346 347 347 347 346 345 344 343 342 342
363 364 364 364 364 364 363 362 360 358 355 353 352 350 348 346 344 343 340 339 340 340 340 339 337 337 338 339 340 341 342 345 347 348 349 349 348 348 347 345 344 344
363 364 364 365 364 364 364 363 362 361 359 356 354 351 350 348 347 346 343 341 341 342 342 340 338 339 340 340 341 342 345 348 349 350 351 351 350 350 349 348 348 347
363 364 364 364 365 365 365 364 363 362 361 359 356 354 351 350 348 347 345 344 343 344 344 342 341 341 342 342 342 345 348 350 351 352 352 352 352 352 351 351 351 350
364 364 364 364 364 364 364 365 363 363 362 360 359 357 355 353 350 348 347 347 347 346 345 345 345 346 346 346 347 348 350 352 352 353 354 354 353 353 354 354 353 353
363 364 364 364 364 364 364 364 363 363 362 361 360 359 358 356 354 351 350 348 348 347 347 348 350 351 351 351 351 351 352 354 354 355 355 355 355 355 356 356 356 356
363 364 364 363 364 363 363 363 363 363 362 362 361 361 359 359 357 355 353 351 349 349 350 351 352 353 354 354 354 354 354 355 356 356 356 356 356 356 356 356 357 357

ECMWFNIL_850_thetae_057.txt.gz
Theta_e
342 343 341 338 337 336 336 337 337 337 336 335 333 332 331 330 330 330 333 336 336 336 337 337 337 337 337 340 343 344 345 346 346 348 349 349 347 345 344 343 341 340
342 343 342 340 338 337 336 337 337 337 336 334 332 330 329 330 330 330 332 336 337 338 339 339 338 337 337 338 340 343 344 344 344 346 348 349 348 347 344 343 342 340
342 342 342 341 338 337 336 336 337 338 336 335 332 330 329 330 331 331 331 334 337 337 337 338 337 337 337 337 338 341 342 342 342 343 345 347 347 347 345 343 342 341
343 341 340 340 339 337 336 336 335 336 337 335 333 330 328 328 331 333 333 334 335 336 336 336 337 337 337 337 337 339 341 340 340 342 342 344 345 346 345 344 343 341
346 343 340 340 339 339 338 336 334 333 334 333 332 331 329 328 330 333 334 335 335 335 335 336 337 337 337 337 337 338 339 339 339 340 340 340 342 343 344 344 343 342
348 345 343 341 341 341 339 336 334 333 332 332 331 331 330 329 329 331 333 334 335 334 334 334 335 336 337 338 338 338 338 338 339 339 339 338 339 341 342 343 342 342
349 348 346 344 343 343 341 338 335 333 332 331 331 331 330 329 329 331 332 332 333 333 333 334 333 334 336 337 337 337 337 337 338 338 338 337 337 338 339 340 340 340
349 349 348 347 345 344 343 340 338 336 333 332 332 331 331 330 329 331 332 333 333 333 333 334 334 334 334 334 335 335 335 335 336 337 337 337 336 336 336 337 337 338
350 350 349 348 347 345 344 342 340 338 336 334 333 332 332 331 330 330 331 332 333 333 333 333 334 334 334 334 333 333 333 333 333 334 335 336 335 334 335 335 335 335
350 351 350 350 349 347 344 342 340 339 338 336 335 333 332 332 332 330 330 331 332 332 331 330 331 332 333 334 333 332 332 332 332 332 332 334 334 333 333 334 335 334
351 351 351 350 350 348 347 343 341 339 338 337 335 334 333 332 332 332 331 330 330 330 330 329 329 330 332 332 333 332 332 332 332 331 331 332 332 332 332 333 333 333
351 351 351 351 351 350 348 345 342 339 337 336 335 334 334 333 333 332 331 331 330 329 329 329 330 330 331 331 332 332 333 333 332 332 332 332 332 332 332 333 333 332
351 352 351 352 351 351 350 347 344 341 338 336 335 334 334 333 333 332 331 331 330 330 329 329 330 330 330 331 331 332 332 332 333 332 332 332 332 333 333 333 333 332
351 352 352 352 352 352 351 350 347 344 341 338 336 334 334 333 333 331 331 331 330 330 330 330 330 330 330 331 331 332 332 333 333 333 333 333 332 332 334 334 333 333
352 352 352 352 353 353 353 352 350 348 345 342 339 336 334 333 332 332 332 331 330 330 330 330 331 330 330 331 331 331 332 332 333 333 333 333 333 334 335 335 335 335
353 353 353 353 353 353 354 354 352 351 349 347 343 340 337 335 334 334 333 332 331 330 331 331 331 330 330 331 331 331 331 332 333 334 334 334 335 336 337 337 336 336
354 354 354 354 354 354 354 355 354 353 352 350 347 344 340 338 337 336 335 334 332 332 331 331 331 330 331 331 331 331 332 333 333 334 335 337 338 339 339 338 338 338
354 354 355 355 355 355 355 355 355 355 354 352 351 348 345 341 339 337 336 335 334 334 333 332 332 331 331 331 331 331 332 333 334 335 337 338 339 339 339 339 340 341
354 355 355 355 355 356 356 357 357 357 356 355 353 352 349 346 342 340 337 337 336 335 335 334 333 332 332 332 332 332 333 334 336 338 338 339 340 340 341 342 342 343
353 354 354 355 356 356 358 358 359 358 357 357 356 355 353 351 348 345 341 338 337 336 336 336 335 334 334 334 334 334 335 337 338 339 340 341 342 342 343 343 344 344
355 355 356 357 357 358 359 359 359 359 359 359 358 357 356 355 352 350 346 341 339 337 337 337 335 335 336 336 336 336 337 339 341 342 342 343 344 344 345 345 346 346
355 357 357 359 359 359 360 360 360 360 360 360 360 359 359 358 356 353 350 346 343 341 340 338 336 336 338 338 337 339 341 342 343 344 344 344 345 345 345 346 347 348
357 358 359 360 360 360 360 360 361 361 362 362 362 361 361 360 359 357 354 351 348 346 343 340 337 338 339 339 339 341 343 344 345 346 346 346 346 346 346 347 348 349
358 359 360 360 360 361 361 361 362 362 363 363 363 362 363 362 360 359 357 355 353 350 347 345 342 341 340 340 340 342 344 345 346 347 347 347 347 347 347 348 349 350
358 360 360 361 361 362 361 362 362 362 363 363 363 363 362 362 361 361 359 358 356 355 353 350 348 346 344 343 343 344 345 346 347 347 348 348 348 348 348 350 350 351
360 361 360 362 361 361 362 362 362 363 363 363 364 363 363 363 362 362 360 360 358 357 356 355 353 351 349 347 346 345 346 347 348 349 349 349 350 350 350 350 350 351

ECMWFNIL_850_thetae_060.txt.gz
Theta_e
343 342 341 341 341 341 340 340 339 338 336 336 337 336 335 335 335 335 335 335 335 335 336 335 335 336 337 337 338 339 340 343 344 344 345 346 346 347 347 345 344 343
344 342 342 341 341 340 340 340 339 338 336 335 337 336 335 335 335 335 334 334 334 333 335 335 334 334 336 336 337 337 339 341 343 344 344 345 346 347 347 346 345 343
345 343 342 341 339 338 338 338 339 338 336 336 336 337 336 336 335 334 334 335 334 333 334 336 335 335 335 337 337 337 337 339 340 342 343 343 344 345 346 346 346 344
347 344 342 340 339 338 338 338 338 338 337 336 337 337 337 336 335 335 334 334 334 333 333 335 336 336 337 337 337 337 337 336 338 340 342 342 342 343 344 345 345 344
348 346 343 340 339 338 337 338 338 337 337 336 336 337 337 337 335 334 333 333 334 333 332 334 336 337 338 337 337 337 336 336 337 338 339 339 339 340 341 342 343 343
348 348 347 343 340 339 338 337 337 337 337 337 336 336 337 336 335 334 332 330 331 333 332 332 334 335 336 336 336 336 337 336 336 337 337 337 337 338 339 339 340 341
349 349 348 346 344 342 339 336 336 336 336 336 336 337 337 336 335 334 331 329 330 332 333 332 333 334 334 335 336 336 336 336 336 337 337 337 337 337 337 338 338 339
349 349 349 348 347 345 342 338 337 336 335 337 336 336 336 336 335 333 332 330 329 331 333 334 333 334 334 334 335 335 336 337 337 337 337 337 337 337 336 336 337 337
349 349 349 349 348 348 345 342 339 338 337 336 335 335 335 335 334 333 331 330 329 329 331 333 333 333 333 333 334 334 335 336 336 336 335 335 336 336 335 336 335 336
349 349 349 349 349 348 347 345 343 341 339 337 337 336 335 334 333 332 331 330 330 329 330 331 332 333 332 333 333 333 334 334 334 334 334 333 333 333 333 334 334 334
349 349 349 349 349 348 348 347 346 345 342 340 338 337 336 335 333 332 331 330 330 329 330 331 332 332 333 333 333 333 333 334 333 333 333 332 331 332 332 331 332 332
349 349 349 349 349 349 348 348 348 347 345 343 340 338 336 335 334 333 331 330 330 329 329 329 330 331 332 332 332 332 332 332 333 333 333 333 332 331 331 331 331 331
349 349 348 348 349 348 349 348 348 348 347 344 340 339 336 335 334 333 332 331 330 330 330 330 330 329 330 331 331 331 330 330 331 332 332 332 332 332 332 331 332 331
349 349 349 348 348 348 348 348 349 348 347 346 342 340 336 335 334 334 332 332 331 330 330 331 330 330 330 330 329 329 329 329 329 330 331 331 331 332 333 333 332 332
349 349 348 349 349 348 348 349 349 348 348 347 345 341 338 335 334 333 333 332 332 331 331 331 331 330 329 330 329 328 329 329 329 329 330 330 331 332 332 333 333 332
349 349 349 349 349 348 349 348 348 349 349 349 347 344 342 339 337 336 335 333 332 332 331 332 331 330 330 329 329 329 329 329 329 329 330 330 330 331 332 332 333 333
350 350 349 350 349 349 349 349 349 349 349 349 348 347 345 343 341 339 337 335 333 333 332 332 331 330 330 330 330 329 330 329 329 330 329 330 330 331 332 332 333 333
350 350 350 350 349 350 349 349 349 350 350 350 349 349 347 346 344 341 338 336 335 334 333 332 331 330 330 330 330 330 329 330 330 330 330 330 330 331 331 332 333 333
350 350 350 350 350 349 349 350 350 350 350 350 350 349 350 348 346 344 340 338 336 335 334 332 332 331 330 330 330 330 330 330 331 331 331 330 331 331 332 333 333 335
351 351 350 350 349 350 350 350 351 351 351 351 351 352 352 351 350 347 345 342 339 336 334 333 332 332 331 331 331 331 331 332 332 333 332 332 332 333 333 334 335 336
351 351 351 350 350 350 351 351 351 351 352 352 352 353 354 354 354 352 351 347 344 341 338 335 333 332 332 332 332 332 333 335 335 334 334 334 334 334 335 335 336 337
351 351 351 351 351 352 352 352 352 352 353 353 353 354 355 356 356 356 355 353 352 350 347 341 334 333 333 332 333 334 335 336 336 336 336 336 335 335 336 337 338 340
350 351 351 351 352 352 352 352 353 353 354 354 355 356 356 357 357 357 358 357 356 355 352 346 340 337 336 335 335 338 339 338 338 337 337 337 336 336 337 338 340 341
349 350 350 351 352 353 352 354 354 355 356 356 356 357 358 359 359 359 359 359 358 357 355 351 347 343 342 342 343 344 343 342 341 340 340 339 338 338 339 340 341 343
348 350 350 351 352 353 353 355 356 357 358 358 358 359 359 360 360 360 360 360 360 359 359 357 354 352 351 350 349 350 349 347 346 344 343 342 340 340 340 341 342 344
349 350 351 351 353 354 355 357 358 358 359 359 360 360 360 360 360 361 361 362 361 361 360 360 359 357 356 356 354 353 352 350 349 348 347 345 344 343 343 344 345 346

ECMWFNIL_850_thetae_063.txt.gz
Theta_e
342 342 341 339 338 338 336 335 334 335 334 334 334 334 335 336 335 335 336 336 336 336 337 337 337 337 337 337 338 338 339 338 339 341 344 345 345 345 346 347 347 347
344 344 343 341 340 339 338 337 337 337 337 336 336 336 335 335 336 337 336 336 336 336 336 336 336 336 336 336 336 337 338 338 338 339 341 343 344 344 345 347 348 348
346 344 343 342 341 340 339 338 338 339 338 338 338 338 337 336 336 337 337 336 336 335 335 335 335 335 335 335 334 335 336 337 337 337 339 340 342 344 344 345 347 347
347 346 344 342 341 342 341 340 339 339 339 339 339 339 338 337 336 337 338 337 337 336 335 335 335 334 334 334 334 334 335 336 337 337 337 337 339 341 342 343 344 345
348 347 347 345 343 342 341 340 340 339 339 338 338 338 338 336 336 337 337 337 337 336 335 335 335 334 334 334 334 334 335 336 337 337 337 336 337 338 340 341 341 342
347 347 348 347 345 342 341 340 339 338 338 338 337 337 336 336 336 336 337 337 337 336 336 335 334 334 333 334 335 336 337 337 336 337 337 336 336 337 338 339 339 340
347 347 347 348 347 345 343 340 339 338 337 337 337 336 336 336 336 336 336 337 337 336 335 334 334 334 333 333 335 337 338 338 337 336 336 336 336 336 337 337 337 338
346 347 347 347 348 348 346 342 339 337 337 337 337 336 336 336 336 336 336 337 336 336 334 334 334 334 334 333 334 336 337 337 336 336 335 336 336 337 336 336 337 337
346 347 347 348 348 348 347 345 342 338 337 336 336 336 335 336 336 336 336 336 336 335 334 333 333 333 334 334 333 334 335 336 336 336 335 336 336 336 336 336 336 337
347 347 347 347 348 348 348 347 345 342 339 336 337 336 336 335 335 335 335 336 335 335 334 332 331 332 333 334 334 334 335 335 335 335 335 335 335 336 335 335 335 335
347 347 347 347 347 348 348 348 348 346 343 340 339 337 336 335 334 334 334 335 334 334 332 331 330 330 331 333 334 334 334 334 334 334 334 333 334 334 334 334 333 332
347 347 347 348 347 348 348 348 348 347 345 343 341 339 337 335 334 333 333 333 333 332 331 330 329 329 329 331 332 333 333 333 333 333 333 333 333 333 333 332 332 331
347 347 347 347 347 347 347 347 348 347 347 345 344 342 339 336 335 334 333 332 332 332 331 330 329 329 328 329 331 331 332 332 332 332 332 332 333 333 333 333 332 332
346 347 347 347 347 347 347 347 348 348 347 346 345 344 341 339 336 335 334 333 333 332 331 331 330 329 329 329 330 331 331 332 332 332 332 332 331 331 331 332 331 331
346 346 347 347 348 347 347 347 347 347 347 347 346 345 343 342 340 338 335 334 333 332 331 331 330 329 328 328 329 329 330 330 331 331 331 331 330 329 329 329 330 330
346 347 347 347 348 348 347 348 347 347 347 348 347 347 346 344 343 340 338 335 332 332 332 331 331 330 328 328 328 329 329 329 330 330 329 329 329 329 329 329 330 329
347 347 347 348 348 348 348 347 348 347 347 347 348 347 347 346 344 344 342 337 333 332 331 331 331 329 328 328 328 329 330 329 329 329 330 330 329 329 329 329 329 329
348 347 347 348 347 348 347 347 347 347 348 348 348 347 348 347 347 346 343 338 336 334 331 331 330 329 329 329 329 329 330 330 330 330 330 330 329 329 329 329 329 329
348 347 347 347 347 348 347 348 348 348 347 348 348 348 349 349 348 347 345 342 340 336 332 331 330 329 329 329 329 329 329 330 330 330 330 329 330 330 329 329 329 329
347 347 347 347 347 347 347 348 348 347 348 348 348 348 348 348 349 349 348 346 344 340 335 334 332 330 329 329 329 329 330 330 331 331 331 330 330 330 330 330 330 330
348 347 347 347 347 347 348 348 348 348 348 348 348 348 348 349 349 349 349 348 346 344 341 338 334 331 330 329 330 330 330 331 332 332 333 332 331 331 331 331 331 331
347 348 347 347 347 347 348 348 348 347 348 348 348 348 348 349 349 349 350 349 348 348 347 343 337 333 333 331 331 332 332 333 333 334 334 334 333 332 332 332 332 333
348 348 347 347 347 347 347 348 348 348 347 348 348 349 349 349 350 350 350 351 351 351 350 348 342 339 337 335 334 335 336 337 337 336 336 335 334 334 334 333 334 334
347 347 347 346 347 347 347 348 347 348 348 348 349 349 350 350 351 351 351 351 352 353 353 352 351 348 346 344 343 344 345 345 344 343 342 340 338 337 336 336 336 336
347 347 347 346 347 347 347 348 348 348 349 349 350 350 351 351 351 352 353 353 354 355 355 356 356 355 353 352 351 351 351 351 350 350 348 346 344 343 341 339 338 338
348 348 347 347 348 347 348 349 349 349 350 350 351 352 352 353 353 354 355 356 356 357 357 358 358 358 357 356 355 355 355 355 355 354 352 350 349 347 346 345 343 342

ECMWFNIL_850_thetae_066.txt.gz
Theta_e
339 339 338 335 334 334 334 334 334 334 333 332 332 331 331 333 334 336 336 336 340 343 341 341 342 343 343 342 343 343 342 342 343 341 340 342 344 345 347 348 349 348
343 342 339 337 337 335 335 335 335 335 335 334 334 333 331 331 333 335 335 335 339 341 341 341 342 344 344 341 340 341 341 342 343 341 340 342 342 343 345 348 349 348
346 346 343 340 339 337 336 337 337 337 336 335 334 333 332 332 333 334 335 335 336 338 339 340 342 342 342 342 340 340 339 340 342 341 339 342 343 341 343 348 350 350
349 349 346 344 341 339 338 338 338 338 338 336 335 334 334 334 334 334 335 336 336 337 336 339 341 340 341 342 341 341 339 337 339 339 340 341 342 340 340 344 348 349
348 348 347 345 343 341 341 341 340 339 338 337 337 336 336 336 336 336 335 335 336 336 336 337 339 339 341 341 341 342 340 337 338 339 340 339 338 338 338 339 342 344
348 347 346 345 344 342 343 342 341 340 339 339 338 338 338 338 338 337 336 335 335 336 336 336 336 337 338 338 340 340 339 340 341 341 341 341 338 337 337 338 339 341
348 348 347 347 346 344 343 342 341 341 340 340 339 339 339 338 338 338 337 335 335 336 336 336 336 336 336 337 339 338 336 337 340 339 339 339 338 337 337 337 337 338
347 347 347 347 347 346 344 343 342 341 341 341 340 340 339 338 338 337 336 335 334 335 336 336 336 335 335 337 338 337 334 335 336 336 337 337 337 336 336 336 336 337
346 347 347 347 347 347 346 345 343 342 341 341 340 340 339 338 337 337 335 334 334 335 336 336 336 335 335 335 336 335 333 333 334 335 336 337 337 336 336 336 337 337
345 346 346 346 346 347 347 346 346 345 343 340 339 340 339 338 336 336 335 334 334 335 335 336 336 335 334 333 333 332 331 331 333 334 335 335 335 335 336 338 340 340
344 345 345 346 346 346 347 346 348 349 346 341 339 339 339 337 336 336 335 334 334 335 335 335 335 334 333 332 332 332 332 331 331 332 334 334 334 335 335 336 337 338
344 345 345 345 345 345 347 347 349 351 350 344 340 338 338 337 336 335 335 335 334 334 335 335 334 334 333 332 332 331 331 332 332 332 333 333 334 334 334 333 333 334
345 345 344 345 345 345 347 349 349 351 352 348 343 339 338 337 335 334 334 334 334 334 334 334 333 333 332 331 331 330 331 332 333 333 333 334 334 333 333 333 332 332
345 345 344 345 345 345 346 349 350 351 352 350 346 342 340 338 336 335 333 333 334 333 333 334 333 332 332 331 330 329 329 330 332 333 334 333 333 332 333 333 333 332
346 345 345 345 345 345 346 348 349 350 350 349 347 345 343 341 339 338 335 333 333 333 333 333 333 332 331 330 330 328 328 328 330 332 332 333 332 332 332 333 332 332
346 346 345 345 345 346 346 346 347 348 348 348 347 346 346 344 343 342 340 336 333 332 333 332 332 332 331 330 329 328 328 327 328 329 331 331 332 332 332 332 332 332
347 346 346 345 345 346 346 346 346 347 347 347 348 347 347 347 345 345 344 342 338 334 332 332 332 331 331 330 329 328 328 327 328 328 329 330 330 331 331 331 330 330
347 347 347 346 345 345 346 346 346 347 347 348 348 347 347 347 347 346 346 346 345 340 336 334 332 332 331 330 329 328 328 328 328 328 328 329 329 329 329 329 330 329
347 347 347 347 346 346 346 346 346 347 347 347 347 347 347 347 347 348 347 347 348 347 344 340 336 333 331 330 330 329 329 329 329 329 329 329 329 329 329 329 329 329
348 347 347 347 347 346 345 346 346 346 347 347 347 347 348 347 347 348 348 348 348 348 347 345 343 338 333 330 330 330 329 330 329 329 330 330 330 329 329 329 329 329
347 347 348 347 347 347 346 346 346 346 347 347 348 348 348 348 348 348 348 348 348 348 348 347 346 343 337 331 329 329 330 330 331 331 331 331 330 330 330 330 330 329
347 348 347 348 348 348 347 346 346 347 347 347 348 348 348 348 348 348 348 348 347 348 348 348 347 345 341 335 332 331 332 332 332 332 333 332 331 331 330 330 330 330
347 347 348 348 348 348 348 347 346 346 347 347 347 348 349 349 348 347 348 348 348 348 348 348 348 347 344 341 337 336 336 335 335 335 335 334 333 332 331 331 331 330
347 347 347 348 348 348 347 347 347 347 347 347 347 348 348 349 348 348 347 347 347 348 348 348 348 347 346 344 342 341 340 340 341 341 340 338 336 334 333 332 332 331
347 347 348 348 348 348 347 347 347 347 346 347 347 347 348 348 348 348 347 347 347 347 347 348 348 349 348 347 346 346 346 346 348 348 347 343 340 338 336 334 333 333
347 347 347 348 348 348 347 347 347 347 347 347 347 347 347 348 349 349 348 348 348 348 349 349 349 350 350 350 350 350 351 352 353 353 352 348 345 345 343 340 337 336

ECMWFNIL_850_thetae_069.txt.gz
Theta_e
349 346 343 337 331 331 332 331 329 327 327 331 336 336 333 334 336 344 351 349 342 342 343 342 342 344 345 345 343 344 344 343 345 346 344 342 346 351 354 355 356 356
350 350 347 341 335 333 333 333 332 330 328 328 336 344 345 344 338 335 343 345 341 341 343 342 342 343 345 345 344 343 344 343 343 345 345 343 342 347 353 355 356 356
349 349 347 345 342 335 334 336 332 332 333 330 331 342 349 350 347 338 333 336 338 341 343 341 340 342 343 344 343 342 342 342 342 346 347 343 340 345 350 354 355 355
347 346 345 346 344 337 334 337 335 332 335 336 334 339 346 349 351 346 333 331 335 338 341 341 340 340 341 342 344 342 341 340 340 343 346 343 342 344 348 353 354 355
346 344 343 343 343 340 337 335 337 335 335 339 341 342 344 345 351 351 339 330 332 334 339 342 339 338 340 340 342 342 341 343 343 341 342 343 343 343 348 352 353 353
347 343 342 341 340 340 339 336 337 338 337 340 345 348 347 344 345 350 345 334 332 333 340 344 342 340 340 339 340 341 340 344 349 347 342 341 344 345 350 353 353 351
346 344 342 342 340 339 340 338 337 339 340 342 347 350 352 348 341 342 344 339 334 336 340 347 347 342 343 342 339 338 338 339 347 350 346 343 343 344 348 352 352 349
345 345 343 342 345 343 340 339 338 339 340 344 349 349 350 352 344 336 338 338 339 342 342 346 349 344 344 347 342 336 336 337 339 342 343 342 342 343 343 344 346 345
346 346 344 342 345 346 344 343 342 341 341 342 348 350 348 349 348 342 338 336 338 343 341 341 346 341 339 346 344 337 335 336 338 340 339 337 338 340 339 337 338 340
348 349 349 346 347 349 349 350 350 347 345 341 343 350 350 348 348 346 343 338 336 340 338 335 339 337 335 339 339 336 334 333 336 339 339 336 334 336 338 338 339 341
349 352 353 349 349 353 353 354 354 353 350 344 341 349 353 351 347 345 343 339 336 336 336 334 334 335 335 336 336 335 332 331 331 333 335 333 331 334 337 339 340 343
352 352 353 350 348 353 356 355 355 356 354 350 344 346 353 355 351 343 341 338 336 335 335 334 332 334 335 335 338 339 335 332 331 332 331 330 329 332 333 334 335 336
355 352 353 353 351 352 356 356 354 354 355 354 351 348 350 354 354 347 339 336 336 335 334 333 332 333 334 334 336 340 339 335 333 334 335 333 331 331 333 335 336 336
355 353 352 355 354 352 353 356 355 353 354 355 355 353 350 352 355 352 344 336 335 335 334 333 332 332 334 334 332 335 338 335 332 334 338 339 337 334 334 338 344 345
354 355 354 354 355 353 352 354 356 354 354 355 356 356 354 352 353 355 352 343 335 334 335 334 333 332 333 333 332 332 333 335 332 330 333 338 340 341 340 339 341 344
355 356 355 353 354 353 351 352 356 356 354 355 357 358 357 354 352 354 356 352 342 335 334 334 334 334 332 332 332 331 330 333 333 331 330 333 335 338 342 342 341 341
357 355 355 353 352 352 350 350 354 356 355 355 357 359 356 355 354 353 355 357 354 346 337 333 333 333 333 331 331 331 330 330 331 331 330 329 329 329 332 337 341 341
357 355 354 352 351 350 348 346 349 354 356 356 358 360 357 354 354 354 354 356 358 357 351 342 336 333 333 332 330 330 330 330 330 331 331 329 329 328 326 328 332 337
358 355 353 350 349 348 346 344 346 350 354 357 358 358 356 351 349 351 354 355 356 359 359 355 348 341 334 330 331 330 329 331 331 333 336 338 336 332 328 326 326 329
358 356 354 350 349 348 346 345 344 345 348 353 356 355 351 348 346 348 352 353 354 357 360 360 358 353 343 332 330 331 330 331 331 333 341 348 349 344 337 330 328 327
360 357 354 352 350 348 347 345 343 343 345 349 356 355 350 345 347 349 349 349 349 353 359 359 359 358 353 342 332 330 330 331 332 333 338 343 348 349 343 335 330 328
360 357 355 353 351 348 347 345 344 344 344 348 354 359 356 349 347 348 349 349 348 349 354 358 357 357 356 349 339 333 332 333 332 332 333 334 337 340 338 334 331 329
360 358 355 352 350 349 347 346 345 344 344 346 351 357 360 357 351 348 349 350 350 347 348 352 355 355 352 349 345 340 336 335 334 333 332 332 332 332 332 331 329 329
359 357 356 352 350 349 348 347 346 346 346 345 346 353 360 361 358 355 353 352 351 348 344 346 350 352 348 345 344 343 340 339 337 336 336 335 334 332 332 331 330 329
359 358 355 351 349 347 347 348 347 346 347 346 345 349 356 360 361 361 359 356 353 352 349 347 347 349 347 344 343 343 343 342 342 341 341 340 337 335 333 333 332 330
359 357 354 351 349 348 348 349 350 350 350 348 346 350 354 358 360 361 362 360 358 357 357 353 349 348 348 345 344 343 343 344 345 345 345 344 340 337 336 336 333 331

ECMWFNIL_850_thetae_072.txt.gz
Theta_e
331 328 326 327 326 327 329 329 328 327 326 326 326 326 326 326 333 345 350 346 340 340 341 341 340 341 342 342 342 343 343 343 347 349 343 341 343 347 353 355 353 353
334 333 331 330 328 327 329 330 328 326 325 325 325 325 326 326 327 336 345 346 340 338 340 341 341 340 341 343 342 342 342 340 343 343 341 341 341 343 349 355 356 354
338 337 336 334 332 331 331 331 330 328 326 325 326 327 330 332 332 331 337 341 338 335 335 339 341 341 340 342 342 341 341 340 340 341 341 340 340 340 344 351 355 356
342 342 340 339 336 335 333 334 334 331 329 327 326 329 334 340 342 339 337 340 338 334 332 334 338 341 341 340 341 341 340 339 339 340 340 339 339 340 341 346 352 355
343 343 343 342 341 339 336 336 337 335 332 331 328 327 332 340 346 346 343 341 339 336 334 332 334 337 339 340 340 341 340 339 338 338 339 339 340 340 341 343 346 350
342 343 344 343 342 342 339 337 339 338 335 334 332 331 332 336 344 348 347 345 340 337 336 334 332 333 336 337 338 339 340 339 339 338 337 338 339 340 342 344 343 344
343 343 344 344 342 343 342 339 339 339 337 334 335 337 336 336 339 344 348 347 342 337 335 335 334 333 334 335 336 337 338 339 341 342 339 338 339 340 342 346 347 344
343 343 344 343 343 343 342 340 338 338 337 336 338 340 340 341 340 341 345 347 344 341 337 337 337 335 335 336 335 335 336 336 339 343 340 337 338 340 340 344 346 343
344 344 343 343 342 341 339 338 337 336 336 337 341 343 342 343 344 342 342 344 346 344 340 339 341 339 338 338 336 334 334 334 335 337 338 337 336 337 339 341 342 341
345 345 343 342 342 340 338 338 338 336 335 336 340 345 345 344 345 343 341 342 344 346 344 342 342 341 340 340 340 337 333 333 333 334 336 336 335 336 337 338 339 339
346 346 344 341 342 340 338 340 344 343 340 338 339 344 348 347 346 345 343 341 340 343 344 344 343 342 341 341 342 340 336 333 332 334 335 335 334 334 334 334 335 336
346 346 346 343 342 343 341 341 347 351 348 344 341 343 348 351 350 347 345 341 337 336 339 340 340 342 341 339 340 341 339 335 334 334 333 334 333 331 331 331 331 334
346 346 347 346 345 346 346 346 350 354 354 350 346 345 348 353 353 350 347 345 339 335 335 336 337 340 340 337 336 339 339 337 337 336 334 332 331 331 330 330 330 330
347 347 348 349 349 349 350 352 352 354 355 354 352 349 349 352 354 353 351 349 345 339 336 335 335 336 337 335 334 335 337 338 339 338 336 333 330 330 330 331 335 338
350 350 350 350 351 351 351 354 355 353 354 355 355 353 351 350 353 355 354 352 350 344 339 337 336 335 335 334 332 332 335 336 337 337 336 334 331 330 330 331 337 346
353 352 352 351 351 351 350 353 355 354 354 355 355 354 353 351 350 354 356 355 353 349 344 340 337 335 333 332 332 331 331 334 335 334 334 333 332 331 331 331 334 340
356 354 354 352 351 349 349 351 353 355 355 355 356 355 354 352 350 351 355 357 355 352 347 341 337 335 334 332 332 331 331 331 332 332 332 332 332 332 331 331 334 335
357 356 356 354 352 350 349 349 352 355 355 354 354 355 355 354 351 351 353 356 358 356 352 345 337 334 334 333 332 331 331 331 331 331 331 330 331 332 330 329 331 334
358 357 356 355 353 352 350 349 350 354 355 354 354 355 355 355 354 352 351 353 356 358 357 353 345 338 335 333 332 332 331 331 331 331 331 331 330 329 330 330 329 329
359 358 357 356 354 353 353 352 350 351 353 354 353 354 355 355 355 354 353 352 354 357 357 356 353 350 343 337 333 331 331 332 332 331 332 332 331 330 331 332 331 329
360 360 358 357 356 355 355 353 351 350 351 353 354 354 354 355 355 356 355 352 352 354 356 357 357 356 354 348 341 335 331 332 332 332 333 334 335 338 338 338 337 335
362 360 359 359 358 356 356 355 353 351 350 352 354 355 355 356 355 356 356 354 352 351 353 357 358 357 358 356 350 343 338 337 336 334 333 334 339 345 348 348 347 345
363 361 361 360 359 358 355 354 354 353 351 352 354 355 357 358 357 356 357 357 355 352 350 352 355 357 358 357 354 351 349 347 343 338 335 333 335 340 346 350 352 351
364 363 362 361 360 359 356 355 355 354 352 351 352 355 360 361 360 358 357 357 357 355 352 349 350 353 355 355 354 354 354 354 350 344 339 335 334 334 337 341 344 344
365 364 364 363 361 360 359 358 357 356 354 352 351 354 360 362 361 361 360 359 358 358 356 352 350 350 351 351 350 349 352 353 353 350 345 340 338 337 336 335 336 335
366 365 365 364 363 362 362 362 360 359 357 354 351 352 356 360 360 362 364 362 360 359 359 356 353 350 347 346 345 345 346 349 351 351 347 343 341 340 339 337 336 334

ECMWFNIL_850_thetae_075.txt.gz
Theta_e
327 326 327 326 326 326 328 329 329 330 331 330 328 327 326 326 326 328 331 335 337 339 339 339 339 340 341 341 342 347 349 346 345 344 342 343 346 348 349 350 351 352
327 327 326 326 326 326 326 327 327 327 327 327 327 326 325 325 326 326 327 329 333 336 337 337 338 338 340 341 340 342 344 342 342 342 342 341 342 344 346 349 351 352
330 327 326 325 325 325 325 326 326 326 326 326 326 326 326 326 326 326 326 327 329 331 335 337 338 338 339 340 339 340 341 340 339 341 341 340 340 341 343 346 350 352
335 331 328 326 325 325 325 326 325 325 325 325 325 325 326 326 325 325 325 326 326 327 330 333 336 337 339 340 338 339 339 339 338 339 339 338 339 339 340 341 345 350
339 336 333 330 328 326 325 325 325 325 325 324 324 324 325 325 325 326 326 327 327 327 327 329 332 334 336 339 339 338 338 338 337 337 337 337 338 338 339 339 341 345
341 339 337 335 332 330 328 326 326 326 326 325 325 324 324 324 325 325 326 328 328 328 328 327 328 330 333 336 338 338 338 337 336 337 337 337 337 336 337 339 339 340
343 341 339 337 336 334 332 330 329 329 329 328 327 326 325 325 325 325 326 328 331 332 331 329 328 329 330 333 335 336 337 337 337 336 336 336 336 336 335 336 339 339
346 343 340 339 337 337 335 333 332 332 331 330 329 328 327 326 326 326 325 328 332 334 333 332 330 330 331 332 333 334 335 336 336 335 335 335 335 335 335 335 336 338
349 345 342 340 340 339 338 337 336 335 334 333 332 330 329 327 326 326 326 327 331 333 333 333 331 331 332 332 332 333 333 334 335 334 334 334 334 335 336 336 336 336
352 349 345 342 341 341 341 339 338 337 336 335 333 333 331 329 327 328 328 328 330 331 331 332 332 331 331 332 333 333 333 333 334 334 333 333 333 334 335 337 337 336
354 351 348 345 343 342 342 341 340 338 337 336 335 335 334 331 329 331 332 331 330 329 329 330 330 330 330 330 331 332 333 333 334 333 333 333 333 333 334 335 336 336
356 353 350 347 344 343 342 342 342 339 337 335 335 335 336 334 332 333 334 334 332 331 330 329 329 329 329 329 330 331 331 332 333 333 333 332 332 332 333 334 334 333
357 354 352 348 345 344 343 343 342 341 338 336 335 336 337 338 336 335 335 335 335 334 333 331 330 330 331 330 329 330 330 330 331 332 332 332 332 331 332 332 332 331
358 356 353 349 346 344 344 344 343 342 340 338 337 337 337 339 338 336 336 336 337 336 335 334 333 333 332 331 331 331 331 331 331 331 332 332 332 332 331 331 330 329
359 356 355 352 349 346 345 345 343 343 343 341 340 338 338 338 338 338 337 338 339 339 338 337 337 336 334 333 333 332 333 333 332 332 332 332 332 332 331 331 329 329
360 358 356 354 352 348 345 345 343 343 345 345 343 341 340 340 340 340 340 340 340 340 339 340 339 338 336 334 333 333 333 334 334 333 333 332 332 332 332 331 329 329
362 359 357 355 353 349 347 345 344 344 345 346 345 345 345 344 343 344 345 343 343 342 341 340 339 338 336 336 335 334 334 335 334 333 333 332 332 332 331 330 329 328
363 360 358 356 353 351 348 346 346 346 345 347 347 347 348 348 347 347 348 348 346 345 344 342 339 337 336 334 334 334 334 335 335 334 333 333 332 332 331 330 329 328
363 361 359 357 355 353 351 349 348 348 348 348 348 348 349 350 350 349 350 352 351 350 348 345 342 340 337 335 334 333 333 334 334 335 334 333 331 331 332 331 330 330
364 363 360 358 356 355 353 352 350 350 349 350 350 350 350 351 351 350 351 352 353 353 352 349 345 342 340 338 335 333 332 332 333 333 333 332 332 331 331 332 331 330
364 364 361 359 358 357 356 354 352 351 351 351 352 353 352 351 351 352 352 351 352 353 353 352 350 346 343 342 338 335 334 334 334 334 333 333 331 331 331 332 332 332
365 364 362 360 358 358 356 356 354 352 352 353 353 354 354 353 353 353 353 351 351 352 353 353 352 350 348 347 342 339 337 338 338 337 336 334 332 331 333 332 332 333
364 364 363 361 359 358 357 356 356 353 351 353 355 355 354 355 354 354 354 353 351 351 352 353 353 353 351 350 347 344 344 344 343 342 339 336 333 332 333 334 334 334
364 363 363 361 360 358 357 357 356 355 353 352 354 356 355 354 354 354 355 354 352 351 351 352 353 353 353 351 350 349 349 349 349 347 344 339 335 335 336 337 336 334
364 363 363 362 361 359 358 357 357 357 356 353 353 355 355 355 355 355 355 355 354 352 351 350 352 352 352 352 351 351 352 352 353 353 350 345 340 338 338 338 337 335
364 363 363 362 361 360 359 358 358 358 357 356 354 354 355 355 355 355 354 355 354 354 353 352 351 351 351 352 352 352 352 353 355 355 353 350 345 342 339 338 337 335

ECMWFNIL_850_thetae_078.txt.gz
Theta_e
329 330 331 332 334 333 333 332 332 332 332 333 333 332 331 332 334 335 337 339 339 339 340 339 339 340 340 340 340 341 344 346 346 344 342 343 346 347 346 348 349 346
328 328 330 332 333 332 332 330 329 329 330 330 330 328 328 328 329 329 332 335 338 339 339 339 340 340 340 340 340 340 342 344 344 343 342 342 344 347 347 347 348 349
327 327 328 330 331 330 331 330 328 328 327 327 327 327 327 327 326 326 326 329 333 335 337 338 338 338 339 340 341 340 341 341 341 341 341 341 342 343 345 346 347 348
327 327 327 328 328 328 328 329 329 328 327 326 326 326 326 325 326 326 325 326 327 330 333 335 337 337 338 339 340 340 341 341 340 340 340 340 340 340 341 343 345 346
327 327 327 327 327 326 327 328 328 328 327 326 326 326 326 326 325 325 325 325 326 326 328 331 334 336 337 338 339 339 339 339 339 339 340 339 339 339 340 340 342 344
330 328 327 327 327 327 327 327 327 327 327 326 327 326 326 326 326 326 326 326 326 325 326 327 330 332 334 337 338 338 338 338 338 339 339 338 337 338 339 338 339 340
335 331 328 327 327 327 326 326 326 326 325 326 326 326 326 326 326 326 326 326 326 325 325 326 327 328 330 332 334 337 337 337 338 338 337 336 336 337 337 337 338 339
341 337 333 330 329 327 327 327 326 326 325 325 325 325 325 325 325 325 325 325 325 325 325 326 326 327 327 328 330 333 335 336 337 337 336 335 335 336 336 336 336 337
345 342 339 336 333 331 329 328 327 327 325 325 325 325 325 325 324 324 324 324 324 325 325 325 326 327 327 328 328 330 332 333 335 335 335 335 334 334 334 334 335 335
349 346 344 341 338 337 335 333 331 329 328 326 326 326 326 326 325 325 325 325 324 324 324 324 325 326 327 328 328 329 330 331 333 334 334 335 334 333 334 334 335 335
351 349 347 345 342 340 339 337 336 334 332 331 329 328 328 328 328 327 327 326 325 325 324 325 325 326 326 327 328 329 331 331 332 333 332 333 333 333 333 334 335 335
354 352 351 349 346 343 341 340 339 338 336 335 333 332 331 330 330 330 329 329 328 325 324 324 325 325 326 326 328 329 330 331 332 332 332 333 333 332 332 333 334 334
355 354 353 351 349 347 344 342 341 340 339 338 336 335 334 332 332 332 332 331 330 328 326 325 325 325 326 326 327 328 329 330 331 332 333 333 333 333 332 332 332 333
355 355 354 354 352 351 348 346 344 343 341 340 339 338 337 336 335 334 334 332 331 330 328 326 325 326 326 327 328 329 331 330 330 331 332 333 333 333 332 332 331 332
356 357 356 355 355 354 352 351 348 346 344 342 342 341 340 339 338 337 336 334 332 331 329 328 328 328 327 327 328 330 332 331 330 330 330 330 331 332 332 332 331 331
357 357 357 356 357 356 356 354 351 349 346 345 344 343 343 342 341 340 338 335 332 330 330 330 329 329 328 328 329 330 332 332 331 330 330 329 330 331 332 332 331 331
358 358 358 357 357 357 357 355 354 351 348 347 346 346 345 345 344 342 339 336 334 331 331 331 330 329 329 329 330 331 332 333 333 331 330 330 330 331 331 331 331 331
359 359 359 359 359 359 358 357 355 353 351 349 348 348 348 347 345 343 339 337 335 334 333 332 331 330 330 330 331 332 332 334 333 333 332 333 332 332 332 332 331 330
359 359 359 359 360 360 360 358 356 354 352 350 349 349 349 349 347 345 341 339 338 337 336 335 333 333 333 333 332 332 333 335 335 335 334 334 334 334 333 333 331 330
359 359 359 360 360 362 361 361 359 356 354 352 350 350 350 351 350 348 345 341 340 339 338 336 335 335 334 335 335 334 335 337 338 338 337 336 335 335 335 334 332 331
358 358 358 360 361 362 362 361 360 359 357 354 352 351 351 352 351 350 349 345 343 342 340 339 337 336 336 337 337 337 339 340 341 341 341 339 337 336 336 336 334 333
356 357 358 360 360 362 362 361 361 361 359 357 354 352 352 352 352 352 351 349 347 346 344 342 340 338 338 339 339 341 342 343 344 344 345 343 339 336 336 335 335 334
355 356 358 359 360 361 361 361 362 362 361 359 356 354 353 353 353 353 353 352 351 349 348 346 343 340 339 338 339 343 346 346 347 346 346 344 340 334 334 334 334 335
356 357 357 358 360 359 359 360 362 363 362 361 359 356 354 353 352 353 352 352 353 352 350 349 347 344 343 340 340 344 348 349 349 347 347 344 339 334 333 334 333 333
356 356 356 357 357 357 357 359 361 362 362 362 360 358 355 354 353 353 353 353 354 354 353 352 351 348 346 344 343 345 349 351 351 349 348 344 339 334 334 333 333 332
354 353 352 353 354 355 357 359 361 363 363 362 361 359 356 355 353 353 354 354 354 355 355 354 353 351 349 347 345 346 349 351 352 352 351 346 340 337 335 335 333 332

ECMWFNIL_850_thetae_081.txt.gz
Theta_e
332 332 331 331 332 332 331 332 332 334 336 336 335 333 333 332 333 335 336 337 338 337 337 338 338 338 339 339 339 341 341 341 343 345 344 344 344 345 346 345 346 345
331 331 331 330 331 331 331 331 330 331 333 334 334 333 333 332 333 334 336 337 338 337 337 338 337 337 338 339 338 340 341 340 343 344 343 341 341 343 345 345 346 346
329 330 330 330 330 330 330 330 331 331 331 331 332 334 333 332 332 333 335 336 337 338 337 337 338 338 338 339 339 339 340 339 341 344 343 341 340 341 343 345 347 347
329 329 329 329 329 329 329 329 329 331 332 330 330 331 333 332 331 332 333 333 334 336 338 337 338 338 338 339 339 339 340 339 340 342 342 341 341 341 342 344 346 347
331 328 328 329 329 329 329 328 328 329 330 330 328 328 330 330 329 329 329 328 328 330 333 335 337 337 338 338 339 339 339 339 339 340 341 340 340 340 341 342 343 343
336 332 329 328 329 329 329 328 327 327 327 328 328 327 327 327 327 327 327 326 326 326 327 329 332 334 336 337 337 337 337 338 338 340 340 339 338 339 339 340 340 340
341 338 333 330 329 329 330 328 328 327 327 327 327 327 327 326 326 326 326 326 325 325 325 325 326 328 330 333 336 337 337 337 338 339 339 339 338 338 337 338 339 339
346 343 339 335 331 329 330 330 329 328 327 327 327 327 326 327 326 326 326 326 326 326 325 325 325 325 326 328 331 334 335 336 338 338 338 338 339 338 336 336 337 338
348 346 344 340 336 331 329 329 330 329 329 329 328 327 327 326 326 326 326 326 326 326 326 325 326 325 325 325 326 328 330 332 334 336 337 338 337 337 337 337 337 336
350 349 347 345 341 335 331 328 328 328 331 332 330 328 328 327 326 325 326 326 325 326 326 325 325 325 325 325 325 325 327 328 330 331 334 336 336 336 336 337 337 336
350 350 349 348 345 340 335 330 327 327 330 333 332 330 329 327 326 326 325 325 325 324 324 324 324 324 324 325 324 325 326 326 328 328 330 332 334 335 335 336 337 336
351 351 350 350 349 346 340 334 330 328 328 330 331 331 330 328 327 326 325 325 324 324 324 324 324 324 324 324 324 324 324 326 328 329 329 330 331 333 334 334 336 336
351 351 351 352 351 350 346 342 337 333 330 329 329 329 329 328 327 327 326 326 325 325 325 325 325 325 325 325 324 324 324 324 326 328 330 330 330 331 332 333 333 334
352 352 353 353 352 351 350 347 344 340 337 334 332 331 330 330 329 329 328 328 328 328 327 327 327 327 328 328 327 325 324 324 325 326 328 329 330 331 331 332 332 333
353 353 353 353 353 352 352 352 349 347 344 342 339 336 335 335 334 334 333 333 332 332 332 331 331 330 329 330 329 327 326 324 324 325 326 327 329 330 331 332 332 333
353 353 353 353 353 353 353 353 353 351 350 348 345 342 341 339 339 338 337 337 336 336 335 334 334 333 333 332 331 330 327 326 325 325 326 327 328 329 329 330 331 332
353 354 354 354 354 354 354 354 353 353 353 352 350 348 346 344 342 341 340 340 339 338 338 337 337 335 335 333 332 331 329 328 327 326 326 327 328 329 329 329 329 330
355 354 354 355 354 354 354 354 354 354 354 354 353 352 351 349 347 346 344 342 341 340 340 339 338 337 336 335 334 332 331 329 328 328 328 329 330 331 330 329 329 329
355 355 355 355 355 355 354 354 354 355 355 355 354 354 354 353 352 350 348 346 344 342 341 340 340 338 337 336 334 332 331 331 331 331 331 331 332 333 332 331 330 330
355 355 355 355 355 355 355 355 355 356 356 355 355 355 356 356 355 353 351 349 345 343 342 342 340 339 337 336 333 332 332 332 334 334 334 334 334 335 334 333 332 331
356 356 356 356 356 356 356 356 356 356 357 357 357 357 357 357 356 354 352 350 347 345 344 342 340 339 338 337 334 333 333 334 335 336 337 337 337 337 336 334 332 332
357 356 356 357 356 357 357 356 357 357 357 357 357 357 358 358 358 356 354 351 348 347 346 343 340 339 338 337 336 335 335 335 336 337 338 339 339 340 338 336 334 333
358 358 357 358 357 358 358 358 358 358 358 358 357 358 359 359 359 359 356 353 350 349 347 343 340 339 339 338 337 337 338 339 339 339 339 340 341 342 342 340 338 336
359 358 359 358 359 359 359 358 359 359 359 359 358 358 359 360 359 360 359 357 354 350 347 343 341 338 339 338 338 338 339 340 341 341 342 342 342 343 344 344 342 339
358 358 358 359 359 359 359 359 359 359 359 359 359 359 360 360 360 360 360 360 358 354 350 346 342 339 338 338 337 339 341 342 344 345 344 344 344 345 346 346 345 342
356 357 357 357 358 358 358 358 358 358 358 359 359 360 360 360 360 360 360 361 360 358 355 350 345 341 339 338 338 338 341 343 346 346 345 345 345 346 347 348 347 345

ECMWFNIL_850_thetae_084.txt.gz
Theta_e
334 334 334 334 334 333 333 332 332 333 337 340 341 339 338 337 337 338 337 337 338 337 338 338 339 339 340 341 341 341 343 343 343 343 344 346 346 345 345 346 347 347
332 332 333 333 334 333 332 333 331 332 333 336 339 339 338 337 336 336 336 336 337 337 337 338 338 339 339 340 340 340 340 341 342 342 342 344 345 344 343 344 346 347
333 332 331 332 332 332 332 332 332 332 333 334 336 338 338 337 335 335 334 334 335 336 337 338 337 338 338 339 340 340 340 340 341 342 342 343 344 344 342 342 344 346
334 331 331 331 331 331 331 331 331 331 332 332 333 335 337 337 336 334 334 333 334 335 336 337 337 337 338 338 339 340 340 340 340 341 341 342 344 344 343 341 342 345
337 333 331 330 330 331 331 331 330 330 331 331 331 332 335 337 336 335 334 333 333 335 336 337 337 338 337 338 338 339 339 340 340 340 340 340 341 341 342 342 341 342
341 337 334 331 329 330 330 330 329 329 330 330 330 331 332 334 335 335 335 333 332 333 334 335 336 336 337 338 338 338 338 338 339 339 339 338 339 339 340 340 340 340
344 342 340 336 332 329 329 330 330 329 329 329 330 330 331 332 332 332 333 333 331 330 330 329 330 331 332 334 335 335 337 337 338 337 337 337 337 338 338 338 339 338
346 345 343 341 337 332 329 328 329 329 328 328 329 329 330 331 331 330 331 331 330 328 326 326 326 326 327 328 328 330 332 334 336 336 337 337 337 337 337 338 338 337
346 346 345 345 343 339 333 329 328 328 328 328 328 328 328 329 330 330 330 330 329 327 326 325 326 325 325 325 325 326 326 328 330 332 335 336 337 338 338 338 338 337
347 347 346 346 345 344 340 334 329 327 327 327 327 328 327 327 328 329 330 330 329 328 327 326 325 325 325 326 325 326 325 325 325 326 328 330 332 335 336 338 338 337
347 347 347 347 347 346 345 341 337 332 329 327 326 327 327 326 327 328 329 330 329 328 328 326 326 325 326 325 325 325 325 325 325 324 325 326 327 329 330 332 335 336
347 347 347 347 347 348 347 346 345 341 336 331 328 327 327 326 326 326 326 329 329 329 329 327 327 325 325 325 324 325 324 324 324 324 324 324 324 326 327 329 330 332
348 348 348 348 348 348 348 348 347 347 343 338 332 329 327 327 327 326 326 327 327 328 329 328 327 327 326 325 324 324 324 324 324 324 324 324 323 325 326 328 329 329
348 348 348 348 348 348 349 349 349 349 348 345 341 336 332 329 328 327 327 327 327 327 327 327 328 328 327 326 325 325 325 325 325 325 325 324 324 324 324 326 328 329
348 349 348 348 349 349 349 349 350 350 350 349 347 343 339 334 331 329 328 327 327 327 327 327 328 328 327 327 326 326 326 326 327 327 327 327 326 324 324 324 326 327
349 349 348 349 348 349 350 350 351 351 351 351 350 348 346 342 338 336 333 332 331 330 330 329 329 329 329 329 329 329 329 330 330 329 330 329 328 326 324 324 325 326
349 349 349 349 349 349 350 351 351 351 351 352 351 351 350 348 346 344 341 339 337 336 335 335 334 334 334 333 333 333 333 333 333 332 331 331 330 328 325 325 325 326
350 350 350 350 350 350 351 351 351 351 352 352 352 352 352 351 350 349 347 345 344 342 341 339 337 338 337 337 337 336 337 337 336 335 334 332 331 329 327 325 325 327
350 350 351 351 350 351 352 352 351 352 352 353 353 352 353 352 352 352 352 351 349 348 346 343 339 338 338 338 338 338 338 339 338 338 336 335 332 329 328 327 326 327
351 351 351 352 351 351 351 352 352 353 353 353 353 353 353 353 353 353 353 353 352 352 350 348 343 340 338 338 338 338 338 339 340 340 339 336 333 329 328 327 327 328
352 353 352 352 352 353 353 353 353 353 354 353 353 354 354 353 353 354 354 354 354 354 354 352 346 341 339 338 338 338 339 340 341 342 341 338 333 330 329 328 328 329
353 353 353 353 353 354 354 354 354 354 354 354 354 354 354 354 355 355 355 355 355 355 355 353 346 341 340 339 337 339 339 340 342 342 342 339 334 331 330 329 330 331
355 354 354 355 355 355 355 354 355 355 355 355 355 355 355 355 355 355 355 356 356 356 356 355 350 343 340 339 338 338 339 340 341 340 341 339 335 332 332 330 331 332
355 355 355 356 355 355 356 356 355 356 355 355 356 355 355 355 356 356 356 356 356 356 356 357 355 350 346 342 338 339 340 340 340 340 341 339 337 335 333 333 333 333
355 355 356 357 357 357 357 357 357 357 357 356 356 356 356 357 357 357 357 357 357 357 356 358 358 357 354 349 343 341 342 341 340 341 342 340 338 337 336 335 334 335
355 355 356 357 358 358 358 358 358 358 358 358 357 357 357 357 357 358 358 358 357 357 357 358 358 359 358 356 350 346 343 343 343 342 341 339 339 337 337 337 336 336

ECMWFNIL_850_thetae_087.txt.gz
Theta_e
334 334 334 334 333 333 333 333 333 334 336 339 342 343 342 341 340 340 340 340 340 340 340 340 340 341 342 342 343 343 343 345 346 346 345 346 347 347 347 347 346 346
334 333 333 334 333 333 333 333 333 332 333 336 340 342 343 342 341 340 339 339 338 339 339 338 338 339 339 340 341 341 341 343 344 345 344 344 345 346 346 346 345 345
333 332 332 333 333 333 333 332 332 332 332 333 335 339 342 343 341 340 339 338 337 337 338 338 338 338 338 339 339 339 340 340 341 342 343 343 344 345 346 345 345 344
334 332 331 332 332 332 333 333 332 332 332 332 333 335 339 341 342 341 339 338 336 336 336 336 337 338 338 338 338 339 338 339 339 340 341 341 342 344 345 345 344 344
339 334 331 331 331 331 332 332 332 332 332 331 331 332 335 338 340 340 340 338 336 334 334 335 336 336 337 338 338 339 339 339 339 339 339 340 341 342 343 344 343 343
343 340 335 332 331 331 331 331 331 331 331 330 331 331 332 333 336 338 339 339 337 335 334 334 335 336 337 338 338 338 339 339 339 339 339 339 339 340 340 341 341 341
346 344 342 338 335 333 331 330 330 331 330 330 330 330 330 331 332 333 336 337 337 336 336 335 335 335 336 337 338 338 339 339 339 338 338 338 338 338 338 339 338 339
346 346 345 343 341 338 334 331 330 330 330 329 329 328 329 329 329 330 332 334 335 336 336 336 335 334 334 333 333 334 335 335 334 335 335 336 337 337 337 337 337 337
346 346 346 346 345 343 340 336 332 330 329 329 329 328 328 328 328 328 329 330 332 333 334 334 333 332 331 329 329 328 329 328 328 328 329 330 332 333 335 336 336 336
347 347 347 346 346 345 345 343 339 335 331 329 329 329 328 328 327 327 327 328 329 330 331 332 331 330 328 327 327 327 327 327 327 326 326 326 327 327 329 330 332 333
347 347 347 347 347 346 346 346 344 342 337 332 330 328 328 328 328 327 326 327 327 327 328 328 328 328 327 326 326 326 326 326 327 326 326 326 326 326 325 326 326 328
347 347 347 347 347 347 347 346 346 346 344 340 336 332 329 327 327 327 327 326 326 326 326 326 326 326 326 326 326 326 326 326 326 326 326 325 325 325 325 324 324 325
347 347 348 348 347 347 347 347 347 347 346 346 344 340 336 332 329 327 327 327 326 326 325 326 325 325 325 326 326 326 326 326 326 325 325 325 325 325 325 325 324 324
348 348 348 348 348 348 347 347 347 347 347 347 347 346 344 340 336 332 329 327 327 326 326 326 325 325 325 325 325 325 325 325 324 324 325 324 325 325 325 325 326 325
348 347 347 347 347 348 348 348 347 347 347 347 348 348 347 346 344 341 337 333 329 327 327 326 326 326 326 325 325 325 325 325 324 325 325 325 325 326 326 326 327 327
348 347 347 347 348 347 348 348 347 348 348 348 348 348 348 348 348 347 345 341 337 333 330 328 327 327 327 328 327 327 327 326 326 326 326 326 327 327 328 328 328 328
348 348 348 347 347 348 347 347 348 348 348 348 348 348 349 349 349 349 349 347 344 340 337 334 330 330 330 329 329 329 329 329 329 329 329 329 329 329 330 330 330 330
347 348 348 348 348 348 348 347 347 348 348 348 348 349 349 349 350 350 350 350 349 346 343 339 335 333 333 333 332 333 332 333 333 333 333 332 331 332 332 332 331 331
348 348 348 348 348 348 348 348 347 348 348 348 348 349 349 350 350 351 351 351 351 350 349 346 341 337 335 335 335 335 335 336 336 337 337 336 335 334 334 333 333 332
348 348 348 348 348 348 348 347 348 348 348 348 349 349 349 350 351 351 352 352 352 352 352 351 348 344 341 339 338 337 336 337 337 338 338 338 337 337 336 335 333 332
348 348 349 348 349 348 348 347 348 348 348 348 348 349 349 350 351 351 352 352 353 353 352 353 352 350 348 347 344 342 341 340 340 340 340 339 339 338 337 336 334 332
350 350 350 350 350 349 349 349 349 349 349 349 349 349 350 351 352 352 352 353 353 353 353 353 353 353 352 352 351 349 349 348 346 343 342 341 340 338 337 336 334 332
351 351 351 351 351 350 350 350 349 348 349 349 349 350 350 351 352 353 353 353 353 353 354 354 354 354 354 353 353 354 353 352 349 346 344 342 340 339 338 337 335 332
352 352 352 352 352 352 351 351 351 350 350 350 350 351 352 352 353 353 354 354 354 354 354 354 354 355 355 355 355 355 355 354 351 349 346 343 340 339 339 338 336 332
352 352 353 353 353 353 353 353 352 352 351 351 351 353 353 353 353 354 354 355 355 355 355 355 355 355 355 356 356 356 356 356 355 353 349 344 340 339 339 338 336 333
353 353 353 353 354 354 354 354 354 353 354 353 354 354 354 355 355 355 356 356 356 356 356 356 356 356 356 356 356 356 357 357 357 356 351 344 340 339 339 338 336 335

ECMWFNIL_850_thetae_090.txt.gz
Theta_e
338 337 336 335 334 334 335 337 339 342 345 349 351 350 349 345 344 345 345 344 344 344 345 345 345 344 345 345 344 345 344 346 351 351 347 344 346 351 353 352 352 353
337 338 337 336 335 334 334 333 335 338 339 342 347 351 350 345 343 343 343 344 344 344 345 344 344 343 343 344 344 344 344 343 347 350 348 346 348 352 354 354 353 352
336 336 336 336 335 335 334 334 332 334 337 337 340 344 346 347 346 343 342 343 342 342 342 342 342 342 342 343 343 343 344 343 344 348 348 345 347 351 354 355 355 354
339 336 334 334 336 335 335 336 334 333 336 337 337 339 342 346 347 345 343 342 341 341 340 340 341 341 341 341 342 342 343 342 341 344 345 343 343 347 350 354 355 356
343 340 336 333 334 335 334 335 335 334 334 335 336 337 335 338 342 343 344 342 341 339 339 340 339 339 340 340 342 341 341 343 343 341 341 343 344 345 348 351 351 351
345 344 341 336 333 333 333 333 333 333 334 333 335 336 334 332 336 340 343 342 342 341 341 341 340 338 339 338 340 340 338 343 347 345 342 342 345 348 350 351 348 347
346 345 344 341 336 332 331 331 332 332 332 333 333 333 333 331 332 335 338 339 342 344 345 344 340 336 336 337 339 340 337 339 344 343 343 343 342 344 348 349 346 344
346 346 346 345 341 336 332 330 330 331 331 332 332 331 331 331 331 332 333 334 338 340 342 341 337 333 336 337 338 339 338 339 341 340 340 342 340 339 342 344 343 342
347 346 346 346 345 342 338 334 332 331 329 330 331 331 331 330 329 331 330 331 333 335 336 336 334 333 335 336 337 337 336 337 341 338 334 333 333 333 336 338 340 340
347 347 346 346 346 346 344 342 340 338 333 329 329 332 333 331 328 329 330 329 329 331 332 333 333 333 333 334 335 335 332 331 333 332 328 327 327 329 332 335 335 336
347 347 347 346 346 347 347 346 347 346 342 336 331 331 334 334 330 328 329 329 328 329 329 330 331 331 333 333 333 332 330 327 327 327 327 326 326 326 328 330 330 333
348 348 348 348 347 347 349 348 348 349 348 345 339 335 334 334 332 328 328 328 327 327 327 328 328 329 330 331 331 331 328 326 326 327 326 326 326 326 326 326 325 326
351 349 348 348 347 347 348 349 350 349 349 348 347 343 340 338 336 331 327 327 327 327 326 326 326 327 329 329 329 330 328 326 327 327 326 326 326 326 329 332 330 328
352 352 351 349 348 347 347 348 350 350 349 349 348 347 345 345 343 339 333 328 327 327 327 327 327 326 327 327 327 328 327 326 326 326 327 328 327 326 328 333 335 335
350 351 352 350 348 347 347 348 348 349 349 349 348 347 347 347 347 346 343 338 333 329 327 326 327 327 326 326 326 326 326 326 325 326 326 326 326 327 327 329 330 334
348 348 349 348 347 347 347 347 347 348 349 348 347 347 347 347 347 347 348 347 344 339 334 330 328 327 326 326 326 325 325 326 325 326 325 325 325 325 326 328 330 333
350 348 347 347 347 347 347 347 346 347 347 348 347 347 346 347 347 347 347 348 348 347 345 341 337 332 328 326 326 326 326 326 326 325 325 325 325 325 326 328 330 332
353 350 347 347 347 347 347 347 347 346 346 346 346 346 347 347 347 347 347 347 348 348 348 348 347 341 334 330 328 328 327 326 326 327 328 329 329 328 327 328 329 331
354 353 350 348 347 347 347 347 347 347 347 347 346 347 347 346 346 347 347 347 348 348 349 349 350 348 343 336 333 331 330 329 328 328 330 333 334 333 331 331 331 331
354 355 354 352 349 347 348 348 348 348 348 348 348 348 348 347 347 347 347 347 348 348 349 349 350 351 349 345 339 336 334 333 332 332 333 334 335 336 336 335 334 334
354 356 357 356 352 348 348 348 348 349 349 349 348 349 350 349 349 349 349 348 348 348 349 350 350 351 352 350 347 344 342 340 339 339 338 338 337 337 337 337 337 336
353 353 355 356 355 351 350 349 349 349 349 349 349 350 351 352 352 352 352 352 351 350 349 350 351 351 352 352 352 350 350 349 347 346 345 343 341 339 338 337 337 337
351 350 352 354 355 354 354 353 352 351 351 350 350 350 351 352 353 354 354 354 354 353 352 351 351 352 353 353 353 352 352 352 352 351 350 348 345 344 342 340 338 336
350 350 351 352 353 354 355 356 355 354 354 354 354 353 352 352 353 353 354 355 355 355 355 354 353 353 353 353 353 353 353 353 353 353 353 352 350 348 346 344 340 337
350 351 351 351 352 354 354 355 355 355 356 355 355 355 354 353 353 353 353 355 356 356 356 356 355 355 354 354 354 354 354 354 354 354 354 354 353 351 350 347 343 339
348 350 351 351 352 353 354 355 355 355 355 355 355 355 355 355 355 354 354 354 354 354 355 356 356 357 356 355 355 354 355 355 355 355 355 355 354 354 353 351 346 341

ECMWFNIL_850_thetae_093.txt.gz
Theta_e
336 336 336 339 345 348 349 349 350 351 353 354 352 352 353 354 355 355 355 351 344 344 345 343 344 343 344 346 345 348 350 350 355 355 349 348 353 356 356 355 355 355
337 337 337 339 343 345 347 349 350 350 351 352 353 353 353 353 353 352 352 351 345 344 344 342 344 343 343 347 346 345 346 345 351 356 351 346 351 356 356 356 356 355
336 337 337 338 342 344 346 349 350 350 349 350 352 353 354 354 354 350 347 347 347 347 345 342 343 343 342 344 345 345 348 345 347 355 354 347 350 355 357 355 355 356
338 336 335 338 345 347 347 349 350 349 348 348 349 350 351 352 353 352 347 343 344 347 346 342 340 342 341 342 343 344 347 347 346 350 352 349 347 351 356 356 356 356
342 339 336 339 346 349 349 349 349 349 348 348 348 348 349 350 351 353 351 345 341 344 346 344 340 341 341 341 341 342 344 348 349 345 344 345 347 350 354 355 355 355
345 343 340 340 345 348 349 349 348 349 348 347 347 347 347 349 349 351 352 351 347 347 348 348 346 345 345 342 340 340 342 347 351 350 345 343 347 352 354 354 354 354
346 346 344 343 346 346 346 348 349 349 348 347 347 347 346 348 349 348 349 351 351 350 349 350 350 349 349 346 341 338 338 341 346 351 351 348 348 350 353 353 353 353
348 348 346 345 349 349 346 347 349 348 347 346 346 347 346 347 349 348 346 347 350 351 350 349 350 350 350 350 345 338 337 341 345 345 346 347 347 349 350 351 353 352
353 353 349 347 350 351 348 346 347 348 347 346 345 346 346 346 348 348 347 346 346 349 351 351 352 352 349 348 348 342 337 342 347 347 345 344 343 346 347 349 351 352
355 355 354 353 352 351 350 347 346 347 347 346 345 344 344 345 345 346 349 347 342 343 348 349 351 352 349 348 348 345 338 338 342 345 348 346 345 347 349 349 351 352
357 357 356 356 354 352 350 348 345 345 346 346 346 344 342 344 344 344 347 348 343 338 339 340 342 344 344 345 350 349 343 341 341 340 340 339 339 343 345 345 347 349
358 358 356 356 355 353 351 349 347 345 345 346 347 345 343 343 344 345 345 343 337 334 335 333 332 334 335 336 343 349 349 347 346 343 339 335 333 335 338 338 339 341
357 358 357 356 356 355 352 350 349 347 345 345 346 347 345 342 343 345 347 343 333 328 332 335 330 328 329 329 332 341 348 350 349 347 345 342 338 340 343 342 341 341
357 357 357 357 357 356 355 352 350 349 348 347 347 347 347 344 342 342 346 347 341 332 328 331 332 328 327 327 327 331 340 347 348 347 346 346 345 345 345 345 344 344
357 356 357 358 357 357 357 355 353 351 350 349 348 348 347 346 344 343 343 346 347 344 336 334 337 336 333 329 326 326 331 339 346 346 344 344 345 345 345 345 344 343
356 356 357 358 358 358 358 357 356 354 353 352 351 350 350 349 348 347 346 345 347 349 347 344 342 342 340 333 327 325 326 331 338 343 344 344 343 342 343 342 342 342
354 356 356 357 358 359 358 358 357 356 354 354 354 353 352 352 352 350 349 347 347 348 349 349 346 343 342 337 330 326 325 327 331 336 341 343 343 343 342 340 339 339
354 355 356 356 357 358 360 359 357 355 354 354 355 356 355 355 354 353 352 350 349 348 348 348 348 346 345 343 338 331 327 326 329 335 341 343 343 344 344 342 341 340
354 354 356 356 356 357 359 359 357 354 352 353 354 355 356 356 356 355 353 351 350 350 349 349 349 348 347 347 346 342 336 331 329 332 336 339 342 343 344 345 345 343
354 354 354 355 355 356 357 358 358 356 353 353 354 355 355 355 355 356 355 352 350 350 350 350 351 350 349 348 349 348 345 341 337 334 333 334 336 338 341 344 346 346
352 352 352 353 353 353 355 355 356 357 356 355 355 355 356 355 353 354 355 352 350 350 350 351 351 351 350 349 350 349 349 347 346 344 342 339 336 335 335 337 339 343
352 350 350 351 352 353 354 354 353 353 354 355 356 355 356 356 355 355 355 354 353 353 353 353 353 352 351 350 350 350 350 350 351 350 349 347 343 339 336 334 333 335
351 351 349 349 351 352 353 354 353 352 351 353 355 355 356 356 356 357 357 356 357 356 355 354 354 353 352 350 350 350 350 350 351 351 352 351 349 346 343 340 337 335
348 350 350 350 351 353 355 355 355 354 353 354 355 355 357 357 357 356 357 357 357 357 357 355 354 353 352 351 350 351 351 351 351 352 352 352 352 351 349 347 344 342
343 345 348 349 351 352 354 355 356 356 355 355 355 356 356 357 357 357 357 357 356 357 357 357 356 355 354 353 351 351 351 352 352 352 353 353 353 352 352 352 351 348
337 341 343 346 349 351 351 352 354 355 355 354 355 355 356 357 357 357 357 357 357 357 357 357 356 355 355 355 355 353 352 352 353 353 353 353 353 353 353 353 353 352

ECMWFNIL_850_thetae_096.txt.gz
Theta_e
336 336 340 345 345 343 343 341 344 351 351 348 348 350 354 355 353 355 353 344 342 345 346 345 344 344 345 346 346 345 345 347 349 347 345 347 349 354 355 355 354 352
335 335 337 341 343 343 343 343 345 350 352 352 352 350 352 354 353 353 353 347 342 342 344 345 344 342 343 344 345 345 345 345 347 350 349 347 348 353 355 355 355 354
334 334 335 337 339 340 341 343 345 346 348 351 354 353 351 352 351 350 349 347 343 341 342 342 343 342 342 344 344 345 346 345 347 351 353 349 347 351 355 355 355 355
335 334 333 335 337 338 340 344 344 345 347 348 350 353 354 352 351 348 346 345 344 343 343 341 341 342 340 342 343 344 346 347 346 349 351 349 347 348 353 355 354 355
334 335 334 335 340 341 341 345 345 343 347 348 347 349 352 353 353 351 345 341 341 344 343 340 338 340 340 339 341 342 343 345 345 344 345 346 345 345 350 354 353 353
333 335 334 334 343 347 344 344 345 344 346 348 348 348 347 349 353 354 349 341 338 340 342 341 337 337 339 339 339 341 340 342 347 348 343 341 341 344 351 354 353 352
337 334 334 334 343 350 348 345 346 347 346 346 348 349 347 346 346 350 351 348 343 342 345 346 342 336 336 337 338 339 338 339 348 352 348 343 341 342 348 353 354 353
347 341 337 336 343 349 350 349 348 348 348 347 348 348 347 347 343 342 346 349 350 349 349 349 349 342 338 338 336 336 337 337 341 346 345 344 343 341 343 347 350 351
355 352 344 341 345 349 349 350 350 349 348 348 348 347 346 347 346 343 341 341 344 349 350 349 350 348 344 343 342 338 335 337 342 345 342 339 341 341 341 342 342 345
355 357 354 350 349 350 349 349 349 349 349 348 348 347 346 346 346 347 345 339 337 343 347 345 346 349 349 347 345 342 337 335 343 349 347 340 338 338 339 339 339 339
353 354 356 356 354 351 349 349 348 349 350 349 348 346 346 346 345 346 348 344 338 336 340 338 336 342 348 347 345 343 340 336 337 342 345 343 340 337 336 337 339 339
351 352 354 355 355 353 350 349 349 347 348 350 349 346 345 346 346 345 347 347 343 338 335 333 332 334 339 340 341 343 345 343 339 338 338 338 337 336 334 333 334 335
351 352 353 353 354 353 349 348 348 346 347 348 348 347 345 345 345 345 346 345 344 342 338 335 332 331 333 333 334 339 347 350 348 345 343 340 337 335 332 331 331 330
353 353 354 353 353 352 350 348 347 346 345 346 346 347 346 344 343 345 346 345 344 344 342 340 337 333 331 331 329 332 340 347 350 350 350 348 344 340 335 335 336 338
353 354 354 353 353 354 353 350 348 346 345 345 346 346 346 345 343 342 344 346 346 345 344 345 346 341 333 328 328 328 330 335 341 345 348 349 348 346 343 341 342 344
353 353 353 352 351 353 353 350 350 350 348 346 345 345 346 346 345 343 343 344 346 347 346 346 348 348 341 331 327 327 326 326 330 334 339 343 345 345 345 344 345 345
353 353 352 352 351 352 352 350 350 350 350 349 348 346 347 347 346 345 343 343 344 347 348 348 349 350 347 340 334 330 328 326 326 327 332 336 339 341 342 341 341 342
353 353 353 353 353 353 352 352 351 349 348 349 350 349 348 348 347 347 346 345 344 345 347 349 350 350 348 346 343 339 336 332 329 328 330 334 337 339 339 339 338 339
353 352 353 353 354 353 353 353 354 352 348 349 351 353 353 351 350 350 349 348 347 347 347 347 349 350 349 347 346 344 342 340 337 334 333 335 337 338 338 339 339 339
352 352 353 353 353 353 353 352 353 353 351 350 352 353 355 355 354 354 353 352 351 350 349 348 348 349 349 348 348 346 345 343 342 340 339 338 339 339 339 339 340 340
351 351 350 352 352 353 354 353 352 352 352 352 352 351 351 353 354 355 356 356 356 355 354 353 352 351 350 349 348 348 348 346 345 345 344 344 342 341 340 339 340 341
349 350 350 350 351 351 353 353 352 352 352 352 351 350 350 350 350 352 353 354 355 355 354 355 356 355 353 351 350 349 349 348 348 347 348 348 347 346 344 341 339 338
347 349 349 349 350 350 350 351 352 353 353 353 353 352 351 350 350 351 352 352 352 351 350 353 356 356 355 354 352 351 350 350 349 349 349 349 349 349 349 349 347 343
340 344 346 347 348 349 349 349 351 353 354 353 353 353 353 353 352 352 351 352 352 351 349 348 351 354 357 357 354 352 351 351 350 350 349 350 350 350 350 350 350 350
332 335 338 341 343 346 348 349 350 352 355 355 354 353 353 353 354 352 351 351 352 353 353 351 350 352 356 358 357 355 354 352 351 351 351 350 350 350 350 350 351 351
326 328 328 330 335 338 343 347 350 351 353 354 355 355 354 354 355 354 353 352 353 354 354 354 355 355 356 357 358 356 355 354 353 352 351 350 350 350 350 351 351 352

ECMWFNIL_850_thetae_099.txt.gz
Theta_e
341 343 344 346 346 346 346 346 347 347 346 349 352 353 353 352 350 348 347 346 345 346 347 345 346 346 346 348 349 345 345 346 344 344 346 346 349 351 351 350 350 351
338 338 340 343 344 343 342 342 342 342 341 344 349 352 354 355 354 352 351 347 343 343 345 344 344 344 344 345 346 344 344 346 346 344 345 347 350 352 352 352 351 350
337 336 337 340 341 341 340 339 339 340 340 342 345 349 352 355 354 354 353 349 343 342 343 344 343 343 343 343 343 343 343 345 347 344 344 346 349 352 352 353 354 352
335 335 336 338 339 340 340 340 341 341 341 343 347 350 351 353 353 353 353 350 345 343 342 343 343 342 342 342 342 343 342 344 345 345 346 345 346 348 351 353 354 354
333 334 334 336 338 339 340 340 340 342 342 343 347 351 352 352 351 351 352 349 346 344 341 341 343 342 341 341 342 343 343 342 343 344 345 345 344 345 347 351 353 354
334 334 333 334 335 337 339 340 338 339 340 340 344 349 351 352 351 350 348 347 344 343 341 340 341 341 340 340 340 342 342 343 343 343 343 343 344 343 344 348 352 352
333 334 334 334 334 334 336 339 339 338 337 337 339 343 347 350 353 352 348 345 343 342 341 339 338 338 339 338 339 340 340 341 343 343 342 341 341 341 341 344 349 351
337 335 335 334 334 335 335 337 340 340 339 338 338 339 340 344 350 352 350 345 342 340 339 338 337 336 337 337 337 339 339 339 340 340 340 340 340 340 338 340 345 348
349 346 343 339 336 337 338 339 340 341 342 342 341 341 341 340 343 347 348 345 342 339 339 338 336 335 336 336 336 337 338 338 338 339 338 338 338 338 338 340 341 343
357 355 352 347 343 342 344 344 343 342 342 343 345 346 346 344 342 343 345 345 342 339 339 339 337 336 337 337 335 334 335 336 337 337 337 337 337 337 338 340 340 340
357 357 356 355 352 349 349 350 349 347 346 345 346 347 348 347 346 345 346 346 344 342 340 339 339 339 339 338 336 335 334 334 335 335 335 335 335 336 337 338 339 339
357 356 356 357 355 351 349 350 349 349 349 348 347 347 347 348 348 346 346 346 345 344 343 341 342 343 342 339 338 337 335 333 333 333 334 334 333 333 334 335 335 336
356 355 355 355 354 352 350 349 348 347 348 348 348 347 345 346 347 347 346 345 344 343 343 342 343 345 345 343 340 339 337 335 333 332 333 333 333 332 332 332 333 334
354 354 355 354 353 353 353 351 348 346 346 347 349 349 347 343 344 345 345 345 345 343 342 341 340 341 341 340 340 340 339 337 335 332 331 332 332 332 331 332 332 333
353 353 354 355 353 351 352 352 349 346 345 346 347 349 349 346 342 343 345 345 345 344 343 342 340 339 337 335 335 336 337 337 335 335 335 334 334 332 331 331 331 332
352 353 354 355 354 351 351 352 350 347 345 346 346 347 349 349 346 343 343 344 345 344 343 343 342 341 340 337 333 331 331 332 333 335 337 338 339 337 334 331 331 331
352 353 354 354 355 354 354 352 350 348 346 344 345 345 346 348 348 346 344 343 344 344 344 344 343 343 343 342 340 336 331 329 328 329 332 335 339 340 337 334 332 332
351 352 353 353 353 353 353 352 351 349 347 345 345 344 344 346 347 347 346 344 344 343 344 345 345 344 344 344 344 344 341 337 333 331 330 331 332 333 334 333 333 334
352 352 352 352 353 352 352 353 352 350 349 348 347 346 345 346 347 348 348 346 344 344 344 346 347 347 347 346 345 346 347 346 343 340 339 337 335 333 331 330 330 332
352 352 352 352 352 351 351 352 353 352 351 350 349 348 346 346 347 349 349 347 346 345 345 346 347 348 349 349 349 348 348 349 348 347 346 344 342 340 338 336 334 333
350 350 351 351 351 351 351 350 352 353 353 352 351 349 348 347 348 349 349 348 348 348 347 346 346 346 347 348 350 351 351 350 349 348 348 347 346 345 344 343 341 339
349 349 348 349 350 350 350 351 352 353 353 353 352 352 350 350 349 350 350 350 350 349 349 349 348 347 346 346 348 351 352 353 352 350 349 348 348 348 347 347 346 344
344 348 348 348 348 349 349 350 351 352 352 353 353 352 353 352 352 352 353 353 353 353 352 351 351 351 351 350 349 349 349 350 352 352 351 350 348 348 348 348 348 347
339 340 340 341 342 344 346 348 349 349 350 351 352 353 353 353 353 353 352 352 353 353 354 354 354 354 354 354 354 353 352 351 351 351 351 351 350 349 349 349 348 348
332 331 329 330 332 333 335 339 344 347 348 349 350 351 353 353 354 353 352 351 351 351 352 353 353 354 354 354 355 355 355 355 355 354 353 352 351 351 351 350 350 349
323 325 326 325 325 326 329 331 334 340 344 347 349 350 352 353 354 353 353 352 352 351 351 351 352 352 351 352 353 354 354 355 355 355 354 353 353 352 352 352 352 351

ECMWFNIL_850_thetae_102.txt.gz
Theta_e
349 349 348 349 350 350 351 350 350 350 349 345 340 340 343 345 345 345 345 346 345 346 348 348 347 349 349 349 350 348 343 343 343 343 344 344 345 347 347 349 351 352
349 349 347 347 349 349 350 349 349 348 347 345 343 342 343 346 346 345 345 345 344 345 348 347 345 348 349 349 350 348 344 344 344 343 345 345 346 349 349 349 350 351
347 347 346 345 346 347 348 348 347 347 345 344 345 345 344 346 347 347 347 346 346 345 345 346 345 346 347 347 348 348 344 344 345 344 344 346 347 349 350 349 350 351
343 343 345 344 344 345 345 346 345 344 343 342 343 344 345 347 348 349 350 350 350 348 345 344 345 344 344 344 345 346 345 344 346 346 344 345 346 348 349 349 350 351
339 341 343 343 343 343 343 342 342 340 339 339 340 341 344 347 349 351 352 351 351 351 347 343 344 344 343 343 343 344 344 343 345 346 345 345 345 346 347 349 350 351
337 339 340 340 339 340 341 341 340 339 338 339 339 339 341 343 347 350 351 350 350 350 348 343 342 343 343 343 343 343 344 344 344 344 344 345 345 345 345 346 349 351
336 337 337 337 337 337 339 339 340 340 339 339 338 338 339 340 342 346 347 349 349 348 347 344 341 341 342 342 342 342 342 343 344 344 343 344 344 344 344 344 346 350
334 334 334 335 335 336 337 337 339 340 340 341 340 339 340 340 341 342 343 345 347 346 345 343 341 340 339 340 340 340 340 340 342 343 343 343 343 342 342 342 343 345
340 337 335 335 335 335 336 336 336 338 339 341 340 340 342 342 342 342 342 343 344 345 344 342 341 339 338 338 338 338 338 338 339 340 341 341 341 340 340 340 341 341
344 342 340 338 337 336 335 336 337 340 343 343 341 341 342 343 344 344 343 343 343 343 343 342 340 338 338 337 336 336 336 336 337 338 338 338 337 337 337 338 340 340
344 344 343 343 342 341 338 337 338 342 347 348 347 345 343 344 346 346 345 344 341 339 340 340 340 338 338 337 335 335 335 335 336 336 337 337 336 335 335 335 336 338
348 347 347 347 347 346 343 339 338 340 343 347 349 349 347 346 347 348 348 346 343 340 339 339 339 338 338 337 336 336 336 335 335 335 335 335 334 334 334 333 333 335
350 350 351 352 351 351 349 345 342 340 340 343 347 349 349 348 347 347 348 348 346 344 342 340 339 338 337 336 335 336 336 335 334 333 333 333 333 333 333 333 333 333
352 353 354 355 353 353 354 353 349 345 344 345 347 348 349 348 348 347 347 347 347 346 345 344 342 341 339 336 335 334 334 333 332 331 331 330 331 331 332 332 332 332
354 354 355 355 355 355 355 356 354 351 349 349 349 349 349 348 348 348 347 346 345 345 346 345 345 344 342 340 338 336 334 333 331 330 329 329 329 329 329 329 329 330
353 353 354 355 355 355 355 354 354 354 353 352 351 349 348 347 348 349 349 348 346 344 344 345 345 345 344 342 341 340 339 338 335 333 330 329 328 329 329 328 328 328
351 352 352 353 353 353 354 354 353 353 353 353 352 350 347 346 347 348 349 349 349 347 345 345 345 345 344 343 343 342 342 342 342 340 337 335 332 329 328 328 328 328
350 350 351 352 352 352 353 353 353 353 353 352 352 351 349 346 346 346 347 349 349 349 347 346 345 344 343 343 343 343 343 343 344 344 344 343 341 337 333 330 329 328
351 351 351 352 352 353 353 354 354 354 353 352 352 352 350 348 345 345 346 347 349 350 349 347 346 345 344 343 343 344 345 345 345 345 346 347 347 346 344 341 339 337
352 352 352 352 352 352 353 353 353 353 353 353 353 352 350 348 346 345 345 347 348 349 349 348 347 346 345 344 345 345 346 346 347 347 348 348 349 349 348 348 347 345
353 353 353 352 353 353 352 352 352 352 352 352 352 352 350 349 346 346 345 346 348 349 350 350 349 347 346 345 346 346 347 347 348 348 349 349 350 350 350 350 349 348
349 351 352 351 351 351 351 351 352 351 352 352 352 352 352 351 349 348 347 346 346 348 350 352 352 350 348 347 347 347 348 348 349 350 350 351 351 351 351 350 350 349
343 346 348 349 347 347 348 349 350 350 350 351 352 352 353 353 352 350 350 349 348 348 349 352 353 353 352 352 351 351 351 351 351 352 352 352 352 351 351 351 351 350
335 338 341 343 342 341 341 343 345 347 347 348 349 350 351 352 352 352 352 352 351 350 350 351 353 354 353 353 352 352 351 351 351 351 351 352 352 352 352 352 352 352
329 332 333 334 334 332 332 334 337 339 342 344 346 348 349 349 350 351 351 352 352 352 352 352 353 353 354 353 352 351 351 351 351 351 352 352 353 353 353 353 353 352
325 327 325 323 324 324 325 327 328 331 334 337 340 343 346 348 349 349 350 351 352 352 352 352 352 352 352 352 352 352 353 353 353 353 353 353 353 353 353 352 351 352

ECMWFNIL_850_thetae_105.txt.gz
Theta_e
346 347 348 348 348 348 347 347 348 349 349 346 343 341 342 344 343 343 343 344 343 344 345 345 345 347 349 350 350 352 350 346 343 344 344 343 344 345 346 346 346 348
347 348 349 349 349 348 348 347 347 348 348 348 345 342 341 344 344 343 343 343 343 343 344 345 346 345 347 349 351 352 351 347 344 345 344 344 344 345 345 347 349 350
347 348 349 349 349 349 348 348 348 347 347 348 347 344 341 342 344 343 343 343 343 343 344 345 346 345 345 348 350 350 350 347 346 346 345 344 345 346 347 349 350 350
346 347 348 349 350 349 349 350 349 347 347 347 347 345 342 342 345 344 343 344 344 344 345 344 345 345 344 346 346 347 347 346 346 346 345 345 345 345 348 351 350 350
344 346 348 349 350 350 350 350 349 348 346 345 344 344 344 344 346 345 344 344 345 346 346 344 343 344 344 344 343 343 344 345 344 344 345 345 345 344 347 349 350 350
342 344 346 348 348 348 348 349 350 349 346 345 343 343 343 343 345 345 346 345 345 346 346 345 342 342 343 343 343 342 342 343 343 343 343 343 344 345 345 346 347 348
339 341 344 345 345 345 346 346 347 348 347 346 344 342 342 342 342 344 345 346 346 344 345 344 343 342 342 342 342 342 341 341 342 343 342 342 343 344 345 345 344 344
337 339 340 342 342 342 342 341 342 344 345 345 343 340 340 341 342 343 346 348 348 347 345 344 343 342 342 341 340 340 340 340 341 341 342 342 342 343 343 343 343 342
336 337 338 339 339 339 338 337 336 338 340 342 341 340 340 341 343 345 348 350 350 349 348 347 345 342 341 340 339 339 338 338 339 339 340 340 341 341 341 341 341 341
334 335 336 337 337 337 336 335 334 334 336 338 339 340 340 341 342 344 347 351 351 351 350 350 349 346 344 341 339 338 337 337 337 337 338 338 338 339 339 339 339 339
334 334 334 335 334 335 334 334 333 333 334 335 336 337 338 339 340 342 344 348 350 350 350 351 351 351 349 346 343 340 337 336 336 335 336 337 337 337 337 336 336 336
335 334 334 333 333 333 333 333 333 333 334 334 334 335 337 339 340 341 342 344 346 348 349 349 349 349 348 347 346 344 341 339 337 336 336 337 336 336 336 336 335 334
339 337 337 336 334 333 333 333 333 333 334 334 334 336 340 342 342 341 341 341 343 345 347 347 348 347 347 346 345 345 343 341 339 337 337 336 336 336 336 337 336 334
345 344 344 343 339 336 334 334 335 334 335 335 335 337 340 344 345 344 343 342 343 344 344 346 347 346 346 345 345 345 344 341 338 335 334 333 332 333 333 334 335 335
351 350 349 349 348 346 344 344 343 343 342 340 338 337 339 343 346 348 347 345 344 344 344 346 346 345 345 344 344 345 344 342 339 337 335 334 332 331 330 329 330 330
355 353 352 352 353 354 353 353 352 350 350 349 347 344 342 344 347 349 349 347 346 345 344 346 347 346 345 344 344 345 345 344 342 341 340 340 339 338 337 334 332 329
355 354 354 353 354 355 356 355 354 353 353 354 354 352 349 347 348 349 350 349 348 346 345 345 346 347 346 345 344 344 345 345 344 343 343 342 342 343 343 344 342 339
352 352 353 354 354 355 355 355 355 355 354 355 355 355 354 352 351 351 350 349 348 347 346 345 345 346 346 346 345 345 345 345 345 345 344 344 344 344 344 346 346 346
350 350 351 352 353 353 354 354 354 354 354 354 354 354 354 353 353 353 352 351 349 347 346 345 345 346 346 347 346 346 345 346 346 346 345 345 345 344 345 346 346 347
350 349 350 350 351 351 352 352 353 353 353 353 354 353 353 353 353 352 352 352 350 348 346 345 345 345 345 346 346 347 346 346 345 345 345 345 345 345 346 347 348 348
349 350 350 351 351 351 352 352 352 353 353 353 353 353 353 353 353 352 352 351 351 349 347 345 345 345 345 345 346 347 347 346 345 345 345 345 346 346 347 348 348 348
345 347 348 349 350 351 352 352 352 352 352 353 353 353 353 353 352 352 352 351 351 349 347 345 345 345 346 347 348 348 347 347 346 345 345 345 346 347 347 347 347 348
340 341 342 342 344 347 349 350 351 351 351 351 351 351 352 352 352 352 352 352 351 350 350 348 347 346 347 348 350 351 350 349 348 346 345 346 346 347 347 348 348 349
335 336 337 337 337 340 343 345 347 348 348 349 349 349 350 350 351 352 352 352 352 352 352 351 350 349 348 348 350 351 352 352 351 349 349 348 348 349 349 350 351 351
333 333 333 333 333 333 335 337 339 341 342 344 345 346 347 348 349 349 350 351 351 352 352 352 352 351 351 350 349 350 351 352 352 352 352 351 351 351 352 352 352 352
332 330 328 327 326 328 330 331 332 333 335 337 340 342 344 346 347 348 349 349 350 350 351 351 352 352 352 352 351 351 351 351 352 352 352 352 352 352 351 352 352 352

ECMWFNIL_850_thetae_108.txt.gz
Theta_e
344 347 349 349 349 348 349 349 349 347 344 343 343 343 342 343 343 344 343 343 344 344 343 344 345 344 346 348 348 346 346 344 342 342 342 343 343 342 343 346 347 346
342 345 348 349 349 348 348 349 349 349 347 347 347 346 343 342 343 344 343 344 343 343 343 344 344 344 345 348 347 347 348 347 343 342 342 343 343 343 344 345 345 345
340 343 346 348 348 348 348 349 349 350 349 349 350 348 344 342 343 344 343 343 343 343 343 343 344 345 345 346 346 347 349 348 345 343 343 343 343 344 345 345 345 346
339 341 343 346 348 347 348 348 348 348 349 349 349 349 346 343 343 344 343 343 343 343 343 343 344 345 345 345 345 346 347 347 345 344 343 343 343 344 345 346 346 347
338 339 340 343 346 347 347 347 346 346 347 347 347 348 348 346 343 343 343 343 342 343 343 343 343 344 345 345 344 344 344 345 345 344 343 344 344 344 344 344 345 347
337 338 338 341 345 347 347 346 344 344 344 346 346 347 347 346 345 345 345 344 343 344 345 346 345 345 344 343 343 343 343 343 343 343 342 343 344 344 343 344 344 345
336 337 338 340 344 346 347 346 344 343 343 344 345 345 345 345 345 345 346 347 347 347 348 349 349 347 346 344 343 343 342 342 342 342 342 342 343 343 343 344 344 344
336 336 337 339 342 345 346 346 344 343 343 343 343 342 342 343 343 343 343 345 347 349 350 351 351 351 350 348 346 345 344 343 341 341 341 341 342 342 342 343 343 343
335 336 337 337 340 342 343 344 342 342 343 342 342 341 341 340 340 340 340 341 344 346 348 350 351 351 351 350 350 348 346 344 343 341 340 340 340 340 341 342 342 342
333 335 336 337 337 339 339 341 340 340 341 340 340 341 341 340 339 339 340 341 342 343 345 347 350 350 350 351 350 349 347 344 343 341 340 339 338 338 339 339 339 339
334 334 336 337 336 337 337 338 339 339 339 337 337 338 339 340 341 340 341 342 343 344 344 345 347 348 348 349 349 348 346 344 343 341 340 338 337 337 336 337 337 337
339 334 334 336 336 336 336 337 337 336 337 335 334 335 337 338 339 340 341 342 343 344 344 344 344 345 345 345 346 346 345 344 343 341 340 339 338 337 336 336 335 335
345 338 334 334 335 335 335 336 336 336 335 334 333 334 335 335 336 337 339 340 342 344 345 345 345 345 344 343 343 344 344 344 343 341 340 338 338 338 337 337 335 335
348 345 341 338 337 337 335 335 335 335 334 333 333 333 334 334 334 334 337 340 343 344 345 346 346 346 345 343 342 342 343 343 343 343 342 340 339 338 338 337 335 334
350 350 348 344 342 342 341 339 337 336 335 334 333 333 333 334 334 334 336 339 342 344 345 345 346 345 344 343 342 341 342 343 343 343 343 343 342 341 340 340 339 337
352 352 351 348 345 344 345 345 344 343 340 338 337 337 337 336 335 335 335 337 339 341 343 344 344 344 344 344 344 343 342 342 342 343 343 343 343 343 343 342 342 342
353 351 350 351 349 347 346 347 348 348 347 346 345 346 346 345 342 339 336 335 336 337 340 342 343 343 343 344 345 345 344 342 341 341 343 344 344 344 344 344 343 343
352 351 352 353 353 350 348 347 347 348 350 353 353 352 352 352 351 348 345 343 341 340 341 343 344 343 344 344 344 345 346 345 343 342 342 343 344 344 345 345 345 344
350 351 352 353 353 352 350 349 348 347 348 352 354 354 353 354 354 354 352 351 350 348 347 347 347 347 346 345 344 344 345 346 346 344 343 343 343 343 344 344 344 344
350 350 350 350 351 352 351 351 351 349 348 349 352 352 353 353 354 355 354 353 353 353 352 352 351 351 350 349 346 345 344 345 345 345 345 344 344 343 344 344 344 345
349 349 349 349 349 349 350 350 351 351 351 351 352 352 351 352 354 354 353 353 353 353 352 352 351 351 351 350 348 346 345 345 345 344 345 345 345 345 344 344 344 345
346 347 347 349 349 349 350 350 351 351 351 351 351 352 351 352 353 353 353 353 353 353 353 352 352 351 351 350 348 346 345 344 345 345 345 345 345 345 345 345 344 345
342 344 345 346 347 348 348 349 350 350 350 351 351 351 351 352 352 352 352 352 352 352 352 352 351 351 350 349 348 346 345 345 345 346 348 348 348 347 347 346 345 345
337 340 341 342 343 344 345 345 346 346 347 347 348 348 349 350 351 352 352 352 352 352 352 352 352 351 351 350 349 347 347 346 346 346 347 347 348 349 349 348 347 347
333 335 335 336 337 338 339 341 341 342 343 343 342 342 344 347 349 349 350 350 351 351 351 351 352 352 351 351 351 350 350 349 348 348 348 348 349 350 351 351 351 351
331 329 328 328 326 327 331 333 335 337 339 339 337 338 340 343 345 346 347 347 349 350 351 351 352 353 353 353 352 352 352 351 351 351 350 351 351 351 351 351 351 352

ECMWFNIL_850_thetae_111.txt.gz
Theta_e
339 340 342 344 347 348 349 349 349 349 347 344 342 342 342 343 343 344 345 345 344 345 345 344 344 345 344 345 347 349 348 347 345 343 343 344 344 344 344 346 347 347
340 340 340 343 345 347 348 349 349 349 348 345 342 343 344 344 344 344 344 345 345 344 345 344 345 345 344 345 347 348 348 348 347 343 342 343 344 344 344 346 347 345
339 340 340 341 344 346 347 348 349 349 349 347 345 347 348 346 344 344 344 345 345 345 345 344 344 345 345 346 347 348 348 349 348 344 342 343 344 344 345 345 346 345
338 339 340 340 342 345 347 348 348 349 349 349 348 349 350 348 345 344 345 345 346 345 344 344 344 344 345 346 346 346 347 348 348 345 343 344 343 344 345 345 347 347
337 338 339 340 340 343 347 348 348 349 349 349 350 350 350 349 347 344 344 346 346 345 344 344 344 344 344 344 344 345 345 346 346 345 344 345 344 344 344 345 346 347
338 337 338 339 340 342 345 347 348 348 349 349 349 349 349 350 349 347 345 345 345 345 344 344 344 344 344 343 343 344 344 344 344 344 344 344 344 344 345 344 344 345
339 337 337 339 340 341 343 346 348 348 348 348 349 349 349 349 349 348 346 346 346 345 345 344 343 345 345 344 343 343 343 343 343 343 343 343 343 344 344 344 344 344
339 338 336 338 340 342 342 345 347 347 347 348 348 347 348 347 347 346 345 345 346 346 347 346 344 346 347 347 345 344 343 342 342 342 342 342 342 342 343 343 343 344
339 338 337 337 339 340 341 343 345 346 347 347 347 346 346 346 345 344 343 343 343 344 347 348 347 348 349 350 349 347 345 343 342 342 342 342 341 341 341 342 342 342
340 339 338 337 338 338 339 341 343 345 345 345 345 345 345 344 343 342 341 340 340 340 343 345 347 348 349 349 349 347 346 344 343 342 342 341 341 340 339 339 339 340
343 341 340 338 338 338 339 339 341 344 344 343 343 343 343 342 341 340 339 338 338 338 339 341 344 346 347 347 347 347 346 345 344 343 341 340 340 339 337 337 337 337
346 345 343 340 338 338 338 339 340 342 343 342 341 341 341 340 340 339 339 339 339 339 339 339 341 344 345 346 347 346 346 345 343 342 341 339 339 338 337 337 337 337
347 347 346 345 341 338 338 338 339 341 342 343 342 341 340 339 338 338 338 339 339 339 339 339 340 341 342 343 344 345 345 344 343 342 341 340 339 338 337 337 337 337
349 348 347 347 346 341 338 338 339 340 341 343 343 341 340 339 338 338 338 338 339 339 339 339 339 339 339 340 342 343 345 345 345 344 343 342 341 340 339 338 337 337
347 348 348 348 347 345 341 338 338 338 338 339 340 340 340 339 338 338 337 337 337 338 339 341 341 340 338 338 340 343 345 346 345 345 345 344 344 343 343 342 341 341
346 347 348 348 348 348 345 340 338 338 337 337 337 337 338 337 337 336 336 336 336 337 339 341 342 341 340 340 342 343 344 345 345 344 345 345 345 345 344 344 343 343
347 348 348 348 348 348 347 342 339 339 340 340 338 337 337 337 336 336 336 336 336 336 338 341 341 341 341 342 343 344 345 345 345 344 344 343 344 344 344 344 344 344
347 349 349 349 349 348 348 345 340 338 340 343 344 342 340 339 338 337 337 339 339 339 339 340 340 339 339 343 344 345 346 346 345 345 344 343 342 342 343 343 343 344
348 350 350 350 349 349 349 348 345 341 340 343 347 347 344 341 340 339 340 343 345 346 345 344 343 340 339 342 345 346 347 347 346 346 345 344 344 342 342 342 342 343
349 350 350 350 350 350 349 349 349 347 344 344 347 349 347 344 343 344 344 345 347 349 350 351 350 348 346 347 349 349 349 349 348 347 345 345 345 344 343 342 342 342
350 350 350 350 350 350 350 349 350 348 345 343 346 348 349 348 348 348 348 348 349 349 350 352 352 352 352 352 352 351 351 351 350 348 346 345 345 345 345 344 344 344
348 349 349 350 349 350 350 350 350 349 345 344 346 348 349 349 349 349 349 349 350 349 349 350 350 351 352 353 352 352 351 351 350 349 347 346 345 345 345 346 346 345
344 346 347 348 348 348 349 349 351 351 349 348 349 349 350 350 350 349 349 348 348 349 349 349 349 350 350 351 352 351 351 351 350 350 348 346 345 345 346 347 348 347
340 341 342 343 343 344 346 346 347 349 350 350 350 351 351 351 351 351 350 350 350 350 351 351 351 351 350 350 351 351 351 351 350 349 348 346 345 346 346 347 348 349
334 334 335 335 336 338 341 343 345 346 347 348 348 349 350 350 351 352 351 351 351 351 351 352 352 351 350 350 351 351 351 351 350 349 348 348 348 348 348 348 349 349
326 325 324 322 324 328 330 333 336 338 339 341 343 344 346 347 348 348 349 349 349 349 350 351 351 351 350 350 351 351 351 351 351 351 351 351 350 350 350 350 350 350

ECMWFNIL_850_thetae_114.txt.gz
Theta_e
343 344 344 347 350 352 354 354 353 353 352 353 353 353 352 349 347 347 348 347 344 345 345 345 345 345 345 347 345 349 351 349 352 350 344 346 347 349 351 350 352 353
342 343 343 346 349 348 350 353 354 354 351 350 352 353 352 347 344 344 345 345 345 346 345 344 346 345 346 349 347 349 350 346 351 354 347 345 349 351 351 352 353 351
342 343 342 345 349 349 350 352 352 352 353 351 350 350 350 349 347 344 344 345 346 350 350 347 348 347 346 346 345 348 350 347 352 355 348 345 349 353 354 354 355 354
341 343 345 348 351 350 351 353 352 352 353 354 351 350 351 352 351 346 343 344 344 348 351 347 348 350 347 345 345 346 348 348 349 350 347 345 346 349 354 356 355 356
341 342 346 349 351 352 352 353 353 353 353 354 354 353 351 350 350 349 347 345 343 345 348 346 345 348 346 344 344 346 349 351 351 348 345 346 347 349 354 355 353 354
344 340 341 345 349 351 352 353 353 354 354 353 354 354 353 351 350 351 350 349 349 350 352 352 350 350 351 347 344 346 350 354 354 350 345 346 349 352 355 354 350 349
347 344 341 343 347 350 351 352 353 353 353 353 354 354 355 354 352 351 350 350 352 354 354 355 353 351 353 352 347 344 345 348 349 346 343 345 347 347 350 351 348 345
350 349 347 346 348 351 351 352 353 353 353 353 354 354 354 355 354 353 351 350 353 354 353 354 352 348 352 355 353 348 347 350 351 347 343 345 345 343 345 348 346 344
350 351 351 350 350 351 351 352 352 353 354 353 353 354 354 354 353 354 353 350 351 351 348 349 349 347 351 356 353 348 347 351 354 353 348 347 348 348 347 349 349 346
350 350 350 351 351 350 351 351 352 353 354 354 353 353 353 354 352 354 353 349 348 349 347 346 347 347 350 353 352 350 347 347 349 350 349 348 349 350 351 352 351 349
348 350 350 350 351 350 350 350 351 352 353 354 354 353 353 354 352 352 352 348 347 351 349 347 346 347 348 350 353 354 351 349 349 348 346 346 346 346 346 346 346 347
346 347 348 349 349 349 350 351 351 351 352 353 354 353 353 353 353 352 352 348 345 348 351 349 347 347 347 347 351 354 353 352 352 351 349 348 346 346 346 346 346 347
345 346 347 349 350 350 350 351 351 351 352 352 353 353 353 352 352 352 352 351 347 345 349 349 346 346 346 344 347 352 354 353 353 354 353 352 350 350 351 351 351 350
345 347 347 349 351 350 349 350 351 351 352 352 353 354 353 352 351 350 351 352 350 348 349 350 347 345 345 343 344 347 351 352 353 353 353 353 353 353 352 352 352 352
345 346 347 347 349 349 348 348 349 351 351 352 353 353 353 352 351 350 350 350 351 351 350 350 350 349 349 348 346 347 350 352 353 353 353 353 353 353 352 352 352 351
346 347 346 346 347 348 349 348 348 348 349 350 350 350 351 352 352 352 351 350 350 351 350 349 349 350 351 347 344 345 348 351 351 352 352 351 351 352 352 351 351 350
347 348 348 348 347 347 348 349 348 347 346 345 345 345 345 347 347 348 350 350 350 349 349 349 348 348 349 344 338 340 344 346 349 350 350 349 350 351 351 350 350 349
345 346 346 347 347 346 347 350 350 349 347 343 340 339 339 339 339 341 343 345 348 349 348 348 346 347 348 345 339 340 343 344 346 348 349 350 350 351 351 350 349 349
345 345 345 345 345 345 345 348 349 349 349 347 344 339 336 336 335 336 337 338 342 347 348 347 347 347 349 346 339 338 342 343 345 347 349 349 350 351 351 351 351 350
347 347 346 344 345 346 346 347 348 349 349 350 349 345 342 340 337 335 335 334 338 342 344 344 347 348 348 343 336 335 337 340 343 346 347 349 350 349 350 350 352 351
348 348 347 346 345 347 348 348 348 349 349 349 350 349 347 346 344 341 341 339 340 343 345 347 350 349 345 338 334 335 336 339 343 346 347 349 350 350 350 350 350 349
348 348 348 348 348 348 349 349 348 349 349 349 350 350 349 348 347 347 349 348 346 347 350 353 353 350 346 342 339 339 341 344 347 348 349 350 350 351 351 350 348 346
347 347 347 348 348 349 349 349 349 349 350 350 350 351 351 351 349 349 350 351 350 350 351 353 353 349 348 347 346 344 346 348 349 350 351 351 351 351 352 350 348 346
342 344 345 345 345 346 347 348 349 349 350 350 351 351 352 351 350 351 351 351 352 352 352 353 352 350 348 349 348 347 347 347 349 350 351 352 352 352 352 350 349 347
339 339 339 339 339 341 343 346 347 348 348 348 349 349 351 351 351 351 351 352 352 350 350 352 352 350 350 350 349 348 348 348 349 350 352 354 354 354 354 354 353 351
329 328 326 327 330 332 334 338 342 343 343 344 345 347 348 349 349 350 351 351 350 348 349 350 351 351 351 351 350 350 350 349 349 351 353 353 353 353 354 354 353 352

ECMWFNIL_850_thetae_117.txt.gz
Theta_e
351 351 350 350 352 354 356 355 355 355 355 355 354 354 354 355 354 354 356 354 347 347 346 344 345 344 346 347 344 347 350 349 351 352 349 349 353 355 355 354 355 355
351 352 351 353 354 353 354 355 356 355 355 355 354 354 355 355 354 352 353 352 349 349 347 344 345 344 347 351 348 348 350 348 349 354 353 349 353 357 355 354 355 354
351 354 352 354 354 353 354 355 355 355 355 355 355 355 355 355 354 351 350 349 351 353 349 345 346 345 346 348 346 346 350 347 348 355 355 349 352 357 357 354 354 354
350 354 353 353 353 354 354 354 355 355 355 355 355 354 354 355 355 353 351 347 348 353 352 347 347 349 349 346 344 347 351 349 348 351 351 348 351 355 355 356 355 355
351 353 354 353 353 353 353 354 354 354 354 355 355 354 354 356 356 356 354 349 345 349 353 350 348 352 352 347 345 348 350 350 351 352 348 346 350 353 354 356 356 355
353 353 353 354 354 353 353 354 354 354 354 354 354 355 355 355 354 356 357 354 350 351 354 354 353 354 355 352 348 347 349 351 353 352 348 347 352 355 355 356 357 356
353 352 352 353 354 354 353 354 354 354 354 354 354 354 355 355 355 355 356 356 355 355 355 356 356 355 357 357 352 346 347 351 352 350 347 349 353 354 354 356 358 355
351 352 352 352 352 353 353 353 354 355 354 354 354 354 354 356 355 355 355 355 355 356 355 357 357 353 354 358 356 351 349 352 354 350 347 349 351 350 350 354 356 353
351 351 351 352 351 351 352 352 353 354 354 354 354 354 354 355 355 355 356 355 355 356 356 357 356 352 352 357 357 353 350 352 355 354 354 354 353 351 352 353 354 353
350 350 351 351 351 350 350 351 351 352 354 354 354 354 354 354 355 355 357 356 355 356 356 355 354 353 354 355 356 353 350 350 353 355 356 356 355 356 356 355 355 354
351 351 351 350 351 350 349 350 350 351 352 352 353 353 353 354 354 355 357 357 355 355 355 354 354 355 355 355 355 355 353 353 354 354 354 353 354 354 353 353 354 353
351 351 350 350 350 350 350 349 350 351 350 350 351 353 352 353 354 353 355 357 356 355 355 355 355 355 355 355 355 356 356 355 355 355 355 354 354 354 352 352 352 352
352 351 351 350 350 350 349 350 350 350 350 350 350 352 352 352 353 353 354 355 355 354 354 355 355 354 354 354 354 355 357 357 357 356 355 355 355 354 353 353 352 352
354 353 351 349 350 350 350 350 351 350 350 350 349 351 352 352 352 353 354 354 354 353 353 353 353 353 353 353 353 355 356 357 357 356 356 355 355 354 353 352 351 351
356 356 354 350 349 350 349 349 351 352 351 351 351 351 351 352 352 352 352 352 353 353 353 352 352 353 353 352 353 354 354 355 356 355 354 354 354 354 352 351 351 351
354 356 357 353 348 347 347 347 350 353 353 352 352 352 352 353 353 352 352 351 352 353 353 351 350 350 350 351 352 352 352 353 353 352 352 353 354 353 352 351 351 350
351 352 356 357 352 348 347 347 349 351 353 352 353 353 354 354 354 354 353 352 352 352 352 352 351 348 347 348 350 351 351 351 351 351 352 353 353 353 352 351 350 348
351 351 353 355 354 349 347 347 348 349 350 351 352 353 354 354 354 355 354 353 352 352 351 350 349 348 347 346 347 348 347 346 347 349 350 350 350 350 350 350 350 348
350 350 350 349 350 349 348 348 348 348 349 350 351 352 353 353 351 352 353 353 352 351 350 348 347 346 346 346 346 347 346 344 342 345 347 347 347 349 349 350 351 350
349 349 348 347 349 350 351 350 349 349 350 351 352 351 351 350 349 347 347 348 347 347 348 347 346 345 345 345 345 346 346 344 340 341 346 347 347 348 348 348 349 350
350 350 349 349 349 349 349 349 349 348 348 350 351 352 351 350 349 347 346 346 347 348 348 346 346 346 346 345 345 346 346 345 340 339 341 344 346 348 349 349 349 349
351 351 350 350 350 349 349 347 345 345 345 347 349 350 352 351 350 350 350 350 351 350 349 347 346 346 348 347 347 347 346 344 342 340 339 340 343 346 348 350 350 350
349 350 350 350 349 349 348 347 346 345 345 346 348 350 352 352 351 351 350 350 350 349 348 349 349 348 349 350 349 348 346 344 344 346 347 346 346 348 349 351 351 350
346 347 347 347 347 347 348 347 346 346 347 347 348 349 350 350 350 350 348 348 349 347 346 348 349 349 349 349 349 348 346 346 347 350 351 349 347 349 352 353 352 352
341 342 343 342 342 344 346 347 347 347 347 348 348 348 349 349 349 350 350 349 348 346 346 347 348 348 347 347 348 348 348 349 351 351 351 348 346 349 352 351 351 352
330 331 333 334 337 338 340 343 346 347 347 348 348 349 349 349 350 350 351 350 348 348 349 349 348 348 347 346 347 348 349 350 350 350 351 349 349 351 352 351 351 352

ECMWFNIL_850_thetae_120.txt.gz
Theta_e
347 346 344 345 347 347 348 348 347 348 351 352 349 348 352 351 348 350 352 351 348 346 345 345 344 344 346 346 345 345 346 346 347 350 349 347 349 351 352 354 352 350
347 346 344 346 348 349 351 350 349 349 351 352 352 351 353 354 351 350 352 352 348 345 344 344 344 344 346 347 345 345 345 345 346 347 347 346 347 350 352 353 353 350
346 347 347 349 349 349 352 352 352 353 351 351 354 354 353 354 353 350 351 352 350 348 346 345 345 345 345 345 345 345 345 343 345 347 347 346 346 350 353 353 352 352
346 349 350 352 353 352 353 355 355 354 353 351 353 353 353 353 354 351 349 349 348 350 349 346 346 346 345 345 345 345 345 344 345 346 345 345 345 348 352 353 352 353
344 348 351 354 355 354 354 355 355 354 354 353 352 352 351 351 354 354 352 347 345 347 349 348 346 347 348 347 344 344 345 346 346 345 344 344 345 347 351 353 353 353
345 347 351 354 353 353 353 354 355 354 354 354 353 352 352 350 353 356 355 351 347 347 351 352 349 350 352 350 345 345 346 344 346 347 346 346 347 350 354 354 353 354
351 349 351 354 354 353 353 353 354 354 353 353 354 354 353 353 353 355 355 355 353 352 354 355 353 353 355 355 350 346 345 344 347 349 346 345 347 352 355 354 355 356
354 353 353 354 354 354 354 353 354 354 352 352 353 354 355 355 354 354 354 355 356 355 354 354 355 354 355 356 354 348 345 346 349 350 348 346 346 349 351 352 354 355
353 353 354 354 353 353 353 353 354 355 354 353 354 354 354 354 355 355 354 354 355 355 355 354 354 355 355 355 354 352 350 352 353 352 351 350 348 350 351 351 353 353
352 352 353 353 352 352 352 353 352 353 354 354 354 353 353 354 354 355 355 354 353 353 354 355 354 354 353 352 353 354 353 354 354 352 352 352 351 354 355 354 355 356
351 351 352 352 351 351 351 351 351 352 353 354 354 353 353 354 354 354 355 355 354 352 353 353 352 350 349 350 354 355 354 354 354 353 353 353 351 352 354 353 354 354
351 350 351 351 351 350 350 350 350 350 352 353 354 354 353 353 354 353 354 356 356 354 352 352 350 348 347 349 352 355 355 354 354 353 354 354 352 353 354 352 352 352
351 351 351 351 351 351 350 349 349 349 350 352 353 353 353 353 353 353 353 355 355 354 354 354 353 350 348 348 349 352 354 355 355 355 355 354 353 353 354 353 352 352
353 352 351 350 349 350 350 350 350 349 349 351 351 350 350 351 351 352 352 353 353 352 352 354 354 353 352 350 348 349 352 355 356 354 353 354 354 354 354 353 351 351
356 353 352 351 350 349 350 349 350 350 349 350 351 350 349 350 351 351 352 352 352 352 352 353 353 353 353 352 350 349 351 354 355 354 352 352 353 353 353 352 351 350
359 356 353 352 350 349 350 350 350 351 351 350 351 350 349 350 351 351 351 351 351 352 353 353 352 351 352 352 352 351 350 352 355 355 353 353 352 351 351 352 351 349
357 356 353 352 352 351 349 349 349 350 351 351 351 351 350 351 351 351 352 351 352 352 352 352 352 350 349 349 350 350 349 348 350 352 352 352 351 351 350 350 349 349
353 354 352 352 354 352 350 349 347 347 348 349 352 352 351 351 352 353 353 352 351 352 351 350 351 350 349 349 348 347 347 347 348 349 350 349 348 348 348 347 348 349
351 353 351 350 353 354 353 351 348 345 344 345 350 352 351 351 353 353 353 353 353 353 352 350 350 349 348 348 348 347 346 346 347 348 348 347 346 346 346 346 347 348
351 351 350 349 350 353 354 353 350 347 345 346 349 349 350 352 352 351 351 352 353 353 352 351 350 350 349 347 346 346 346 346 346 347 348 347 346 346 346 346 346 346
350 350 350 350 350 350 351 352 350 349 349 348 348 349 351 351 350 348 348 350 352 352 351 351 350 350 349 347 346 345 345 346 346 347 348 347 346 346 346 346 345 345
351 350 350 350 350 350 350 349 349 350 351 350 349 350 352 351 349 349 348 348 350 350 350 350 350 349 348 347 346 346 345 346 346 346 347 347 346 345 345 345 345 345
351 351 350 350 351 351 350 349 349 350 350 350 350 351 351 350 350 351 350 347 347 348 350 350 349 347 347 346 345 346 346 347 346 346 348 348 346 345 346 347 347 345
349 349 348 348 349 350 350 349 350 350 350 349 349 349 349 347 348 350 350 349 347 347 348 349 348 347 347 347 346 346 347 348 348 348 349 348 346 346 347 349 348 347
345 345 345 346 345 346 347 348 348 348 348 348 347 347 346 345 346 348 350 350 349 347 347 347 347 348 348 347 347 347 348 350 350 350 351 350 349 349 349 349 349 348
336 338 340 340 340 341 342 344 345 346 346 346 346 346 346 346 347 348 348 348 349 349 349 347 346 347 348 347 346 347 348 349 350 350 350 349 349 350 350 351 350 349

ECMWFNIL_850_thetae_123.txt.gz
Theta_e
339 343 346 347 345 343 342 343 344 345 346 346 344 346 347 348 349 346 347 348 346 346 346 346 347 344 345 347 347 349 349 347 346 346 346 344 343 344 347 350 349 348
340 343 343 344 343 343 342 342 344 345 346 347 346 346 347 349 349 346 347 349 347 346 345 345 345 344 344 345 344 345 345 344 346 347 346 345 344 344 347 351 351 349
342 344 343 342 342 344 343 344 346 346 346 348 349 349 349 350 350 349 348 350 349 346 345 345 344 344 344 345 345 344 344 344 345 346 346 345 344 346 348 350 352 350
342 344 344 342 343 345 344 346 348 348 349 349 349 352 352 351 353 351 349 349 349 347 345 345 345 344 343 344 344 345 345 344 344 344 346 346 345 347 350 351 352 351
340 343 344 342 343 345 345 347 349 350 351 351 350 352 353 353 353 353 350 347 346 346 346 346 346 345 344 344 344 344 344 344 344 344 345 346 344 346 350 352 352 351
340 342 343 343 346 349 349 349 351 351 351 351 350 351 351 352 353 354 352 349 347 346 346 347 347 345 344 346 345 344 344 344 344 344 344 343 343 345 350 352 353 353
342 342 343 345 351 354 354 353 353 353 352 352 352 351 351 351 352 352 353 352 350 347 345 346 350 348 346 347 346 343 344 345 344 345 345 344 344 346 349 352 354 355
342 343 343 346 352 355 354 353 353 354 354 354 353 353 352 352 351 351 352 353 354 352 349 349 352 353 351 349 349 347 346 344 344 346 346 343 344 345 347 351 354 354
345 344 343 346 351 354 353 353 352 354 354 354 353 353 353 353 353 352 352 353 354 355 354 353 353 354 354 353 351 350 348 345 346 348 348 347 346 344 345 348 350 350
350 347 346 346 348 352 354 353 353 353 354 354 353 352 354 354 354 354 354 353 354 354 355 355 354 354 355 354 353 350 351 350 349 349 350 352 350 347 348 351 351 351
352 351 351 350 349 349 353 354 353 354 354 354 353 353 354 354 353 354 354 354 354 354 355 355 354 354 354 355 353 350 350 352 352 351 351 352 350 349 351 354 353 353
351 352 352 353 351 350 351 352 352 353 353 353 353 353 353 354 353 352 354 355 355 355 354 353 352 352 352 353 353 352 352 353 353 353 352 352 351 351 351 352 352 352
351 351 351 352 352 352 351 351 351 351 352 351 352 353 353 353 353 353 354 354 354 355 355 354 351 350 350 349 350 352 355 355 354 355 354 353 353 354 353 352 352 352
351 351 351 351 351 351 351 350 349 350 349 349 350 351 353 353 352 353 353 353 353 353 354 355 353 351 352 351 349 351 354 356 356 355 355 354 355 355 354 353 354 353
350 350 350 350 351 350 351 350 350 350 349 349 349 350 351 352 352 353 353 352 353 353 354 353 353 353 354 352 352 351 351 353 354 355 354 354 354 354 354 354 353 352
351 350 350 350 351 349 349 350 350 350 350 349 349 349 350 351 351 352 351 351 351 352 353 354 353 353 354 354 352 352 351 351 352 354 354 355 354 354 353 353 353 352
353 351 350 350 350 350 349 349 349 349 350 350 350 349 350 350 350 350 350 350 350 349 349 351 352 353 354 354 352 352 353 352 350 351 352 352 353 353 352 351 350 349
355 354 350 348 348 349 349 349 349 349 349 349 351 350 350 350 350 349 349 350 349 348 348 349 351 353 354 353 351 350 352 352 350 348 347 347 349 348 347 348 347 347
355 356 352 349 349 349 350 350 349 349 349 349 350 351 351 351 350 350 350 349 348 348 348 349 350 351 352 352 351 349 349 351 350 348 347 347 347 346 346 346 346 346
354 355 352 351 351 352 352 352 350 350 349 349 349 350 350 351 351 351 351 350 349 349 349 349 350 351 350 351 350 349 348 349 349 348 349 349 348 347 346 345 345 345
350 351 351 352 353 354 355 354 354 353 351 350 349 349 349 349 349 350 350 349 350 350 350 350 350 350 350 350 349 349 348 347 347 348 350 350 349 349 346 345 344 344
349 349 351 352 352 352 354 354 354 354 353 352 351 349 348 347 346 348 348 348 349 349 349 349 350 351 351 351 349 349 347 346 346 347 350 350 349 348 347 345 345 344
348 348 350 350 351 350 350 350 351 352 352 354 353 351 348 347 347 348 349 349 351 351 349 350 351 351 351 350 349 349 349 347 346 347 349 349 349 347 347 346 345 344
347 347 348 349 349 349 349 349 350 351 351 352 352 351 350 349 348 348 350 351 353 352 351 351 350 350 350 350 349 349 348 347 346 346 347 347 347 347 347 347 347 346
342 344 346 347 347 347 348 349 349 350 350 350 350 350 349 350 350 349 350 351 351 351 351 350 350 348 348 349 350 350 349 347 346 347 348 348 347 348 348 348 349 348
337 338 340 343 344 344 345 346 347 348 348 348 349 349 348 348 348 348 348 348 347 347 348 349 350 349 348 348 348 348 350 350 348 348 350 350 350 350 350 350 350 349

ECMWFNIL_850_thetae_126.txt.gz
Theta_e
343 345 345 344 345 346 346 347 347 347 346 344 343 343 344 346 347 346 344 344 343 343 345 345 346 346 346 347 348 348 350 350 347 345 344 344 344 344 346 348 349 350
342 343 344 344 345 346 345 345 345 344 343 344 343 343 344 347 348 347 346 345 344 344 344 346 346 345 344 345 347 346 346 348 348 345 344 345 344 343 345 348 349 350
340 341 343 344 344 344 343 343 343 342 342 344 345 344 344 346 347 347 347 347 347 346 345 345 346 345 343 343 345 344 344 345 344 344 344 346 345 343 345 348 350 350
336 338 342 344 342 343 342 341 341 342 343 345 345 345 344 345 347 347 346 347 348 348 346 344 344 344 343 343 344 344 344 343 344 343 344 344 344 343 344 347 349 351
335 336 341 343 343 342 342 342 341 342 344 345 346 347 346 346 348 348 347 347 348 349 347 345 344 344 343 343 344 344 344 344 344 343 342 344 344 344 344 346 349 350
336 337 340 343 343 343 344 343 343 344 344 344 345 348 349 349 349 350 350 348 346 347 347 345 344 344 344 344 344 344 344 344 344 343 342 344 345 345 344 346 348 349
337 339 341 343 343 344 345 345 344 345 346 347 347 348 350 351 351 350 351 350 347 345 344 344 344 345 345 345 344 345 344 343 344 344 343 343 343 343 344 346 349 350
339 339 341 343 344 344 345 346 346 347 349 351 350 349 350 351 350 349 351 352 351 347 343 342 344 345 345 345 345 345 344 343 344 344 344 343 343 343 344 346 349 350
342 341 340 341 343 343 345 349 352 351 352 353 352 350 351 352 351 350 351 352 352 350 346 343 343 345 348 348 348 347 345 345 344 343 345 345 343 343 345 346 349 350
344 342 341 341 341 342 345 351 355 354 353 353 353 353 352 352 352 352 351 351 351 351 350 348 346 348 351 352 352 351 350 349 347 345 346 345 343 343 344 344 345 346
344 343 343 342 341 342 346 351 354 354 353 353 354 354 353 352 353 353 352 353 352 352 352 351 350 351 352 353 353 353 352 352 351 350 349 348 347 347 346 345 344 344
343 343 344 344 342 342 345 349 353 353 352 352 353 354 354 353 352 353 353 353 353 353 353 353 353 353 353 353 353 353 352 352 352 352 351 351 350 350 349 348 347 346
345 344 346 347 346 344 344 346 351 353 353 353 353 353 353 353 352 353 353 353 354 354 353 353 353 352 352 352 353 354 353 351 351 352 352 351 351 351 351 351 351 349
347 347 349 350 349 349 348 347 349 351 352 352 353 353 353 352 352 352 353 353 354 352 351 351 350 348 347 348 349 352 354 353 351 352 353 354 353 353 353 353 353 352
350 350 351 351 351 351 352 351 350 350 350 351 352 352 352 352 352 352 352 352 352 352 351 352 351 349 346 344 343 344 349 353 354 353 355 354 353 353 353 354 353 353
353 351 351 351 351 352 353 352 352 351 351 351 350 350 350 351 351 351 351 351 351 352 352 352 352 350 349 348 346 343 345 351 354 354 354 354 353 353 353 353 353 354
351 351 350 351 351 351 351 351 351 352 351 350 349 349 349 350 351 351 351 351 351 351 352 352 351 350 350 349 348 347 347 350 352 353 353 352 351 350 350 352 353 353
350 350 350 351 351 351 351 351 350 350 350 350 349 350 349 350 351 351 351 351 350 350 351 351 351 350 350 349 348 350 350 350 351 353 352 350 350 348 348 349 351 350
350 349 349 349 349 350 350 350 350 350 350 350 350 350 349 350 350 351 351 350 350 349 350 350 350 349 348 348 350 352 352 351 351 352 352 351 350 349 348 347 347 347
350 351 351 351 350 349 349 349 350 350 350 350 351 350 349 350 350 350 350 350 350 349 349 349 349 348 348 348 351 352 352 352 351 350 351 352 351 349 348 347 346 345
349 352 353 353 353 352 351 349 349 350 351 351 350 350 350 350 351 351 351 351 351 351 351 350 349 348 348 349 351 352 352 352 350 349 349 351 352 351 349 349 348 346
348 350 352 353 354 353 352 349 349 351 352 351 351 351 351 351 352 352 352 351 351 351 350 351 350 349 349 349 350 351 351 351 350 348 347 349 351 351 350 349 349 348
350 351 351 351 351 351 349 347 347 349 350 351 353 353 353 353 352 352 352 351 351 351 351 350 350 348 348 349 349 350 350 350 350 348 346 345 347 349 350 350 349 348
350 349 349 349 349 349 348 347 347 348 348 350 352 352 352 352 352 352 352 351 350 350 349 349 349 348 346 346 347 349 351 351 349 347 345 345 345 347 349 350 350 349
347 347 347 347 347 347 348 348 348 349 349 350 350 350 350 351 350 351 352 351 350 350 349 349 349 350 349 347 348 349 351 350 348 346 346 346 346 347 349 350 350 350
344 344 342 342 342 344 345 347 347 347 348 349 349 349 349 349 347 348 349 349 349 349 349 350 350 350 350 350 350 350 350 350 349 348 347 347 347 347 348 349 349 350

ECMWFNIL_850_thetae_129.txt.gz
Theta_e
344 346 346 345 345 345 345 345 346 347 347 347 346 345 344 343 343 345 344 343 343 343 343 344 345 345 346 348 348 346 346 348 347 345 343 342 342 343 343 345 345 348
343 345 346 346 345 344 344 344 346 346 347 347 346 345 345 343 343 345 345 344 343 343 343 344 346 346 347 348 347 346 346 347 349 348 345 343 343 343 343 344 345 347
343 345 345 345 344 343 343 344 345 346 346 346 344 344 343 343 344 346 347 345 344 344 343 344 345 347 347 347 345 345 346 345 347 348 347 345 345 345 345 343 344 346
341 343 343 343 343 342 343 343 344 345 345 345 344 343 343 343 344 346 347 347 345 345 345 344 345 345 345 345 344 343 344 344 345 346 345 344 345 347 347 345 345 346
338 340 340 341 341 341 342 343 343 343 343 343 342 343 344 344 343 344 345 346 345 345 346 346 345 345 344 344 343 343 343 344 345 344 344 344 345 346 347 346 347 348
336 337 338 338 339 339 341 342 342 342 342 341 341 343 345 345 344 343 344 345 345 345 346 347 347 346 344 344 343 343 343 344 345 345 344 344 344 345 346 346 346 348
335 336 336 337 336 337 340 341 341 342 341 340 341 343 345 346 346 345 345 347 347 346 346 347 347 347 345 343 343 344 344 344 344 344 344 344 343 344 346 346 345 347
334 334 335 335 335 336 339 340 341 341 342 342 343 344 345 346 347 348 348 349 349 349 348 346 346 346 345 344 344 344 344 344 344 344 344 344 344 344 344 344 344 345
333 333 334 335 335 336 338 341 341 341 343 344 345 346 347 347 348 349 350 350 350 350 350 349 347 345 344 345 345 345 344 344 344 343 344 345 345 344 344 344 343 344
335 334 334 335 335 337 339 341 341 342 343 345 346 348 349 350 349 349 350 351 350 350 351 351 351 348 346 346 347 347 348 348 347 345 344 345 345 345 344 343 344 344
340 337 337 337 337 338 340 342 342 342 343 347 349 351 352 352 352 351 352 352 352 351 350 351 352 352 349 347 348 350 351 352 351 350 348 346 346 346 345 344 344 344
343 342 341 341 340 339 339 340 342 342 344 348 352 353 353 353 353 353 353 353 352 351 350 350 350 350 348 346 346 349 351 351 351 352 351 350 349 349 349 349 348 347
344 344 344 345 344 344 343 342 341 341 343 347 351 353 352 352 353 353 353 353 352 351 351 351 350 349 349 347 347 348 349 349 349 349 349 350 351 351 351 351 350 349
345 345 345 346 346 347 348 348 346 344 344 347 350 352 352 352 352 352 353 352 352 351 351 351 351 350 349 349 350 350 349 348 348 348 347 347 349 351 351 351 350 349
345 343 343 345 345 346 347 348 349 348 347 348 350 352 352 352 353 352 353 353 352 351 351 352 352 352 350 350 350 350 349 347 347 348 348 347 346 349 352 352 351 351
344 343 345 346 347 347 347 346 348 349 349 349 351 351 351 352 353 353 353 352 352 351 351 351 352 352 351 350 350 350 348 346 345 345 347 348 347 348 351 352 352 351
347 348 349 349 349 349 348 347 348 349 350 350 350 351 351 351 352 352 352 352 352 352 352 351 351 351 351 351 351 351 350 348 345 343 344 348 349 348 347 350 352 353
350 350 350 349 349 349 348 347 347 348 349 350 350 351 351 351 351 350 349 350 350 350 351 351 351 350 350 350 351 351 350 350 348 345 343 347 349 348 346 346 350 352
349 349 349 349 349 348 347 347 347 346 347 348 350 351 352 351 350 349 349 349 350 351 351 351 351 350 350 350 351 351 350 350 349 347 347 348 349 350 348 348 350 352
346 347 348 349 349 349 348 348 348 346 346 346 349 350 350 350 349 349 349 349 349 351 352 352 351 350 349 349 350 350 350 349 348 348 349 350 349 349 349 349 349 351
344 346 347 348 349 349 349 349 349 349 348 348 349 349 350 350 350 349 350 349 348 349 350 351 351 350 349 349 349 349 349 348 348 349 350 351 350 349 349 348 345 346
346 347 347 347 348 349 350 349 349 350 350 350 349 348 349 350 351 351 351 350 349 349 350 350 350 349 349 350 349 349 348 347 347 349 351 351 351 350 350 348 346 345
349 350 350 349 350 352 352 351 351 351 351 350 350 350 351 351 351 350 351 351 351 350 350 350 350 350 350 350 349 349 348 348 347 349 351 351 351 351 349 347 347 348
351 351 352 351 352 353 353 352 353 352 351 351 351 351 351 351 350 350 350 351 351 351 351 350 349 350 350 350 350 349 349 349 349 349 350 351 350 350 350 349 347 348
348 349 350 350 350 349 349 349 349 349 349 349 349 348 348 348 349 349 349 350 350 351 351 350 350 350 350 350 350 350 350 349 349 349 349 349 349 349 350 349 346 346
344 343 344 345 346 346 346 346 347 347 347 347 348 348 348 348 348 348 348 349 348 348 349 350 350 350 350 350 350 350 350 349 349 349 348 348 348 349 349 348 346 345